Time,TemperatureF,DewpointF,PressureIn,WindDirection,WindDirectionDegrees,WindSpeedMPH,WindSpeedGustMPH,Humidity,HourlyPrecipIn,Conditions,Clouds,dailyrainin,SoftwareType,DateUTC
2013-04-28 00:01:00,53.6,38.7,30.28,ESE,107,1.0,6.0,57,0.00,,,0.00,Wunderground v.1.15,2013-04-28 04:01:00,
2013-04-28 00:04:00,53.5,39.1,30.28,ESE,105,1.0,6.0,58,0.00,,,0.00,Wunderground v.1.15,2013-04-28 04:04:00,
2013-04-28 00:05:00,53.5,38.6,30.28,ESE,107,0.0,6.0,57,0.00,,,0.00,Wunderground v.1.15,2013-04-28 04:05:00,
2013-04-28 00:06:00,53.5,38.6,30.28,ESE,106,0.0,6.0,57,0.00,,,0.00,Wunderground v.1.15,2013-04-28 04:06:00,
2013-04-28 00:07:00,53.5,38.6,30.28,ESE,107,0.0,6.0,57,0.00,,,0.00,Wunderground v.1.15,2013-04-28 04:07:00,
2013-04-28 00:08:00,53.5,38.6,30.28,ESE,106,0.0,6.0,57,0.00,,,0.00,Wunderground v.1.15,2013-04-28 04:08:00,
2013-04-28 00:09:00,53.5,38.6,30.28,SE,135,0.0,6.0,57,0.00,,,0.00,Wunderground v.1.15,2013-04-28 04:09:00,
2013-04-28 00:12:00,53.5,38.6,30.28,SE,135,0.0,0.0,57,0.00,,,0.00,Wunderground v.1.15,2013-04-28 04:12:00,
2013-04-28 00:13:00,53.5,38.6,30.28,SE,135,0.0,0.0,57,0.00,,,0.00,Wunderground v.1.15,2013-04-28 04:13:00,
2013-04-28 00:17:00,53.4,38.5,30.28,South,172,0.0,2.0,57,0.00,,,0.00,Wunderground v.1.15,2013-04-28 04:17:00,
2013-04-28 00:18:00,53.4,38.5,30.28,South,175,0.0,2.0,57,0.00,,,0.00,Wunderground v.1.15,2013-04-28 04:18:00,
2013-04-28 00:19:00,53.4,38.5,30.28,South,175,0.0,2.0,57,0.00,,,0.00,Wunderground v.1.15,2013-04-28 04:19:00,
2013-04-28 00:22:00,53.2,38.8,30.28,South,175,0.0,0.0,58,0.00,,,0.00,Wunderground v.1.15,2013-04-28 04:22:00,
2013-04-28 00:24:00,53.1,38.7,30.28,SSE,159,0.0,0.0,58,0.00,,,0.00,Wunderground v.1.15,2013-04-28 04:24:00,
2013-04-28 00:25:00,53.1,38.7,30.28,SSE,159,0.0,0.0,58,0.00,,,0.00,Wunderground v.1.15,2013-04-28 04:25:00,
2013-04-28 00:26:00,53.1,38.7,30.28,SSE,159,0.0,0.0,58,0.00,,,0.00,Wunderground v.1.15,2013-04-28 04:26:00,
2013-04-28 00:28:00,53.1,38.7,30.28,SSE,159,0.0,0.0,58,0.00,,,0.00,Wunderground v.1.15,2013-04-28 04:28:00,
2013-04-28 00:29:00,53.0,38.6,30.28,SSE,159,0.0,0.0,58,0.00,,,0.00,Wunderground v.1.15,2013-04-28 04:29:00,
2013-04-28 00:30:00,53.0,39.0,30.28,SSE,159,0.0,0.0,59,0.00,,,0.00,Wunderground v.1.15,2013-04-28 04:30:00,
2013-04-28 00:34:00,53.0,39.0,30.28,ESE,107,0.0,6.0,59,0.00,,,0.00,Wunderground v.1.15,2013-04-28 04:34:00,
2013-04-28 00:35:00,53.0,39.0,30.28,ESE,107,0.0,6.0,59,0.00,,,0.00,Wunderground v.1.15,2013-04-28 04:35:00,
2013-04-28 00:37:00,53.0,38.6,30.28,SE,128,0.0,6.0,58,0.00,,,0.00,Wunderground v.1.15,2013-04-28 04:37:00,
2013-04-28 00:38:00,52.9,38.5,30.28,SE,128,0.0,6.0,58,0.00,,,0.00,Wunderground v.1.15,2013-04-28 04:38:00,
2013-04-28 00:40:00,53.0,38.6,30.28,SE,128,0.0,0.0,58,0.00,,,0.00,Wunderground v.1.15,2013-04-28 04:40:00,
2013-04-28 00:43:00,52.9,38.5,30.28,SE,134,0.0,0.0,58,0.00,,,0.00,Wunderground v.1.15,2013-04-28 04:43:00,
2013-04-28 00:48:00,52.9,38.5,30.28,South,179,0.0,2.0,58,0.00,,,0.00,Wunderground v.1.15,2013-04-28 04:48:00,
2013-04-28 00:50:00,52.9,38.5,30.28,South,180,0.0,1.0,58,0.00,,,0.00,Wunderground v.1.15,2013-04-28 04:50:00,
2013-04-28 00:52:00,52.9,38.5,30.28,ESE,109,0.0,1.0,58,0.00,,,0.00,Wunderground v.1.15,2013-04-28 04:52:00,
2013-04-28 00:54:00,53.0,38.6,30.28,South,186,0.0,1.0,58,0.00,,,0.00,Wunderground v.1.15,2013-04-28 04:54:00,
2013-04-28 00:55:00,52.9,39.0,30.28,SSW,209,0.0,1.0,59,0.00,,,0.00,Wunderground v.1.15,2013-04-28 04:55:00,
2013-04-28 00:56:00,53.0,39.0,30.28,West,265,0.0,1.0,59,0.00,,,0.00,Wunderground v.1.15,2013-04-28 04:56:00,
2013-04-28 00:59:00,53.0,39.0,30.28,SW,219,0.0,3.0,59,0.00,,,0.00,Wunderground v.1.15,2013-04-28 04:59:00,
2013-04-28 01:00:00,52.9,39.0,30.28,SW,219,0.0,0.0,59,0.00,,,0.00,Wunderground v.1.15,2013-04-28 05:00:00,
2013-04-28 01:01:00,52.9,39.0,30.28,WSW,246,0.0,5.0,59,0.00,,,0.00,Wunderground v.1.15,2013-04-28 05:01:00,
2013-04-28 01:02:00,52.9,39.0,30.28,WSW,246,0.0,5.0,59,0.00,,,0.00,Wunderground v.1.15,2013-04-28 05:02:00,
2013-04-28 01:04:00,52.9,39.4,30.28,WSW,246,0.0,5.0,60,0.00,,,0.00,Wunderground v.1.15,2013-04-28 05:04:00,
2013-04-28 01:06:00,52.8,39.3,30.28,NNW,337,0.0,5.0,60,0.00,,,0.00,Wunderground v.1.15,2013-04-28 05:06:00,
2013-04-28 01:07:00,52.7,39.2,30.28,WSW,242,0.0,5.0,60,0.00,,,0.00,Wunderground v.1.15,2013-04-28 05:07:00,
2013-04-28 01:09:00,52.7,39.2,30.28,WSW,242,0.0,5.0,60,0.00,,,0.00,Wunderground v.1.15,2013-04-28 05:09:00,
2013-04-28 01:11:00,52.5,39.0,30.28,SW,214,0.0,0.0,60,0.00,,,0.00,Wunderground v.1.15,2013-04-28 05:11:00,
2013-04-28 01:13:00,52.5,39.0,30.28,SSW,213,0.0,0.0,60,0.00,,,0.00,Wunderground v.1.15,2013-04-28 05:13:00,
2013-04-28 01:15:00,52.5,39.0,30.28,West,265,0.0,0.0,60,0.00,,,0.00,Wunderground v.1.15,2013-04-28 05:15:00,
2013-04-28 01:16:00,52.4,38.9,30.28,SW,234,0.0,2.0,60,0.00,,,0.00,Wunderground v.1.15,2013-04-28 05:16:00,
2013-04-28 01:19:00,52.5,38.6,30.28,South,180,0.0,2.0,59,0.00,,,0.00,Wunderground v.1.15,2013-04-28 05:19:00,
2013-04-28 01:20:00,52.6,38.7,30.28,South,179,0.0,0.0,59,0.00,,,0.00,Wunderground v.1.15,2013-04-28 05:20:00,
2013-04-28 01:21:00,52.6,38.7,30.28,South,179,0.0,0.0,59,0.00,,,0.00,Wunderground v.1.15,2013-04-28 05:21:00,
2013-04-28 01:22:00,52.6,39.1,30.28,ESE,117,0.0,0.0,60,0.00,,,0.00,Wunderground v.1.15,2013-04-28 05:22:00,
2013-04-28 01:26:00,52.5,38.6,30.28,South,179,0.0,2.0,59,0.00,,,0.00,Wunderground v.1.15,2013-04-28 05:26:00,
2013-04-28 01:27:00,52.6,38.7,30.28,South,179,0.0,2.0,59,0.00,,,0.00,Wunderground v.1.15,2013-04-28 05:27:00,
2013-04-28 01:28:00,52.6,38.7,30.28,South,179,0.0,2.0,59,0.00,,,0.00,Wunderground v.1.15,2013-04-28 05:28:00,
2013-04-28 01:29:00,52.6,38.7,30.28,South,180,0.0,2.0,59,0.00,,,0.00,Wunderground v.1.15,2013-04-28 05:29:00,
2013-04-28 01:32:00,52.5,38.6,30.28,West,281,0.0,6.0,59,0.00,,,0.00,Wunderground v.1.15,2013-04-28 05:32:00,
2013-04-28 01:33:00,52.5,39.0,30.28,West,261,0.0,6.0,60,0.00,,,0.00,Wunderground v.1.15,2013-04-28 05:33:00,
2013-04-28 01:34:00,52.5,39.0,30.27,SSW,205,0.0,6.0,60,0.00,,,0.00,Wunderground v.1.15,2013-04-28 05:34:00,
2013-04-28 01:35:00,52.4,38.9,30.28,SSE,149,0.0,6.0,60,0.00,,,0.00,Wunderground v.1.15,2013-04-28 05:35:00,
2013-04-28 01:39:00,52.4,38.9,30.27,SSE,161,0.0,6.0,60,0.00,,,0.00,Wunderground v.1.15,2013-04-28 05:39:00,
2013-04-28 01:41:00,52.4,38.9,30.27,SE,139,0.0,0.0,60,0.00,,,0.00,Wunderground v.1.15,2013-04-28 05:41:00,
2013-04-28 01:43:00,52.3,39.2,30.27,West,279,0.0,3.0,61,0.00,,,0.00,Wunderground v.1.15,2013-04-28 05:43:00,
2013-04-28 01:44:00,52.3,39.2,30.28,WSW,239,0.0,3.0,61,0.00,,,0.00,Wunderground v.1.15,2013-04-28 05:44:00,
2013-04-28 01:45:00,52.3,39.2,30.27,SE,130,0.0,4.0,61,0.00,,,0.00,Wunderground v.1.15,2013-04-28 05:45:00,
2013-04-28 01:50:00,52.2,38.7,30.27,South,187,1.0,1.0,60,0.00,,,0.00,Wunderground v.1.15,2013-04-28 05:50:00,
2013-04-28 01:51:00,52.2,39.1,30.27,South,187,1.0,1.0,61,0.00,,,0.00,Wunderground v.1.15,2013-04-28 05:51:00,
2013-04-28 01:53:00,52.2,39.1,30.27,SSW,205,1.0,1.0,61,0.00,,,0.00,Wunderground v.1.15,2013-04-28 05:53:00,
2013-04-28 01:54:00,52.2,39.1,30.27,SSW,205,1.0,1.0,61,0.00,,,0.00,Wunderground v.1.15,2013-04-28 05:54:00,
2013-04-28 01:55:00,52.2,39.1,30.27,East,88,1.0,1.0,61,0.00,,,0.00,Wunderground v.1.15,2013-04-28 05:55:00,
2013-04-28 01:59:00,52.2,39.1,30.27,WSW,253,1.0,2.0,61,0.00,,,0.00,Wunderground v.1.15,2013-04-28 05:59:00,
2013-04-28 02:00:00,52.1,39.1,30.27,SSE,167,0.0,0.0,61,0.00,,,0.00,Wunderground v.1.15,2013-04-28 06:00:00,
2013-04-28 02:04:00,52.1,39.1,30.27,WSW,242,1.0,7.0,61,0.00,,,0.00,Wunderground v.1.15,2013-04-28 06:04:00,
2013-04-28 02:06:00,52.0,39.0,30.27,South,173,0.0,7.0,61,0.00,,,0.00,Wunderground v.1.15,2013-04-28 06:06:00,
2013-04-28 02:09:00,51.9,38.9,30.27,WSW,241,1.0,7.0,61,0.00,,,0.00,Wunderground v.1.15,2013-04-28 06:09:00,
2013-04-28 02:11:00,51.9,38.9,30.27,WSW,240,0.0,1.0,61,0.00,,,0.00,Wunderground v.1.15,2013-04-28 06:11:00,
2013-04-28 02:14:00,51.8,38.8,30.27,South,177,1.0,1.0,61,0.00,,,0.00,Wunderground v.1.15,2013-04-28 06:14:00,
2013-04-28 02:15:00,51.8,39.2,30.27,South,176,1.0,1.0,62,0.00,,,0.00,Wunderground v.1.15,2013-04-28 06:15:00,
2013-04-28 02:17:00,51.7,39.1,30.27,West,263,0.0,1.0,62,0.00,,,0.00,Wunderground v.1.15,2013-04-28 06:17:00,
2013-04-28 02:19:00,51.5,38.9,30.27,West,261,0.0,1.0,62,0.00,,,0.00,Wunderground v.1.15,2013-04-28 06:19:00,
2013-04-28 02:21:00,51.5,39.3,30.27,West,263,0.0,0.0,63,0.00,,,0.00,Wunderground v.1.15,2013-04-28 06:21:00,
2013-04-28 02:23:00,51.3,39.1,30.27,West,270,0.0,2.0,63,0.00,,,0.00,Wunderground v.1.15,2013-04-28 06:23:00,
2013-04-28 02:24:00,51.3,39.1,30.27,SSE,165,0.0,2.0,63,0.00,,,0.00,Wunderground v.1.15,2013-04-28 06:24:00,
2013-04-28 02:25:00,51.3,39.1,30.27,South,172,0.0,2.0,63,0.00,,,0.00,Wunderground v.1.15,2013-04-28 06:25:00,
2013-04-28 02:27:00,51.3,38.7,30.27,West,260,0.0,2.0,62,0.00,,,0.00,Wunderground v.1.15,2013-04-28 06:27:00,
2013-04-28 02:29:00,51.4,38.4,30.27,SSW,201,1.0,2.0,61,0.00,,,0.00,Wunderground v.1.15,2013-04-28 06:29:00,
2013-04-28 02:31:00,51.4,38.4,30.26,West,260,1.0,11.0,61,0.00,,,0.00,Wunderground v.1.15,2013-04-28 06:31:00,
2013-04-28 02:32:00,51.5,38.5,30.26,ENE,74,1.0,11.0,61,0.00,,,0.00,Wunderground v.1.15,2013-04-28 06:32:00,
2013-04-28 02:35:00,51.5,38.5,30.26,SSW,192,1.0,11.0,61,0.00,,,0.00,Wunderground v.1.15,2013-04-28 06:35:00,
2013-04-28 02:36:00,51.5,38.5,30.26,WSW,237,1.0,11.0,61,0.00,,,0.00,Wunderground v.1.15,2013-04-28 06:36:00,
2013-04-28 02:37:00,51.5,38.5,30.26,SE,140,0.0,11.0,61,0.00,,,0.00,Wunderground v.1.15,2013-04-28 06:37:00,
2013-04-28 02:41:00,51.7,38.7,30.26,NE,38,1.0,1.0,61,0.00,,,0.00,Wunderground v.1.15,2013-04-28 06:41:00,
2013-04-28 02:42:00,51.7,38.7,30.26,West,271,1.0,1.0,61,0.00,,,0.00,Wunderground v.1.15,2013-04-28 06:42:00,
2013-04-28 02:45:00,51.7,38.7,30.26,SSW,195,0.0,1.0,61,0.00,,,0.00,Wunderground v.1.15,2013-04-28 06:45:00,
2013-04-28 02:47:00,51.6,38.6,30.26,WSW,244,1.0,4.0,61,0.00,,,0.00,Wunderground v.1.15,2013-04-28 06:47:00,
2013-04-28 02:49:00,51.6,38.2,30.26,SE,143,1.0,6.0,60,0.00,,,0.00,Wunderground v.1.15,2013-04-28 06:49:00,
2013-04-28 02:51:00,51.7,38.7,30.26,ESE,105,1.0,1.0,61,0.00,,,0.00,Wunderground v.1.15,2013-04-28 06:51:00,
2013-04-28 02:54:00,51.6,38.6,30.25,SE,137,1.0,1.0,61,0.00,,,0.00,Wunderground v.1.15,2013-04-28 06:54:00,
2013-04-28 02:55:00,51.6,38.6,30.25,SE,138,1.0,1.0,61,0.00,,,0.00,Wunderground v.1.15,2013-04-28 06:55:00,
2013-04-28 02:56:00,51.6,38.6,30.25,WNW,284,1.0,3.0,61,0.00,,,0.00,Wunderground v.1.15,2013-04-28 06:56:00,
2013-04-28 02:57:00,51.5,38.5,30.25,SW,224,1.0,3.0,61,0.00,,,0.00,Wunderground v.1.15,2013-04-28 06:57:00,
2013-04-28 03:00:00,51.4,38.0,30.25,SSE,154,0.0,0.0,60,0.00,,,0.00,Wunderground v.1.15,2013-04-28 07:00:00,
2013-04-28 03:01:00,51.5,38.1,30.25,SSE,154,0.0,6.0,60,0.00,,,0.00,Wunderground v.1.15,2013-04-28 07:01:00,
2013-04-28 03:02:00,51.5,37.6,30.25,SSE,158,0.0,6.0,59,0.00,,,0.00,Wunderground v.1.15,2013-04-28 07:02:00,
2013-04-28 03:04:00,51.6,37.7,30.24,South,179,0.0,6.0,59,0.00,,,0.00,Wunderground v.1.15,2013-04-28 07:04:00,
2013-04-28 03:07:00,51.7,37.8,30.24,SSE,148,1.0,6.0,59,0.00,,,0.00,Wunderground v.1.15,2013-04-28 07:07:00,
2013-04-28 03:09:00,51.8,37.9,30.24,South,180,1.0,6.0,59,0.00,,,0.00,Wunderground v.1.15,2013-04-28 07:09:00,
2013-04-28 03:10:00,51.9,38.0,30.24,ESE,112,1.0,1.0,59,0.00,,,0.00,Wunderground v.1.15,2013-04-28 07:10:00,
2013-04-28 03:12:00,51.9,38.0,30.24,ESE,112,1.0,1.0,59,0.00,,,0.00,Wunderground v.1.15,2013-04-28 07:12:00,
2013-04-28 03:15:00,51.8,37.9,30.24,WSW,252,1.0,1.0,59,0.00,,,0.00,Wunderground v.1.15,2013-04-28 07:15:00,
2013-04-28 03:16:00,51.8,37.9,30.24,SSW,198,1.0,3.0,59,0.00,,,0.00,Wunderground v.1.15,2013-04-28 07:16:00,
2013-04-28 03:17:00,51.8,37.9,30.25,West,262,1.0,3.0,59,0.00,,,0.00,Wunderground v.1.15,2013-04-28 07:17:00,
2013-04-28 03:21:00,51.8,37.9,30.24,SSE,160,1.0,1.0,59,0.00,,,0.00,Wunderground v.1.15,2013-04-28 07:21:00,
2013-04-28 03:23:00,51.8,37.9,30.24,WNW,283,1.0,1.0,59,0.00,,,0.00,Wunderground v.1.15,2013-04-28 07:23:00,
2013-04-28 03:25:00,51.7,37.8,30.24,WNW,286,1.0,1.0,59,0.00,,,0.00,Wunderground v.1.15,2013-04-28 07:25:00,
2013-04-28 03:26:00,51.7,37.8,30.24,WSW,256,1.0,5.0,59,0.00,,,0.00,Wunderground v.1.15,2013-04-28 07:26:00,
2013-04-28 03:29:00,51.6,37.7,30.24,WSW,247,1.0,5.0,59,0.00,,,0.00,Wunderground v.1.15,2013-04-28 07:29:00,
2013-04-28 03:30:00,51.5,37.6,30.24,SW,214,1.0,1.0,59,0.00,,,0.00,Wunderground v.1.15,2013-04-28 07:30:00,
2013-04-28 03:31:00,51.5,38.1,30.24,SW,230,1.0,2.0,60,0.00,,,0.00,Wunderground v.1.15,2013-04-28 07:31:00,
2013-04-28 03:34:00,51.4,37.5,30.24,SW,217,1.0,8.0,59,0.00,,,0.00,Wunderground v.1.15,2013-04-28 07:34:00,
2013-04-28 03:35:00,51.4,37.5,30.24,SW,217,1.0,8.0,59,0.00,,,0.00,Wunderground v.1.15,2013-04-28 07:35:00,
2013-04-28 03:36:00,51.4,37.5,30.24,WSW,239,1.0,8.0,59,0.00,,,0.00,Wunderground v.1.15,2013-04-28 07:36:00,
2013-04-28 03:39:00,51.3,37.9,30.24,SSE,155,0.0,8.0,60,0.00,,,0.00,Wunderground v.1.15,2013-04-28 07:39:00,
2013-04-28 03:41:00,51.3,37.9,30.24,SSE,155,0.0,0.0,60,0.00,,,0.00,Wunderground v.1.15,2013-04-28 07:41:00,
2013-04-28 03:43:00,51.2,38.2,30.24,SW,223,0.0,0.0,61,0.00,,,0.00,Wunderground v.1.15,2013-04-28 07:43:00,
2013-04-28 03:45:00,51.0,38.0,30.24,SE,143,1.0,2.0,61,0.00,,,0.00,Wunderground v.1.15,2013-04-28 07:45:00,
2013-04-28 03:47:00,50.9,38.3,30.24,WSW,254,1.0,2.0,62,0.00,,,0.00,Wunderground v.1.15,2013-04-28 07:47:00,
2013-04-28 03:49:00,50.8,38.2,30.24,WSW,239,1.0,2.0,62,0.00,,,0.00,Wunderground v.1.15,2013-04-28 07:49:00,
2013-04-28 03:51:00,50.7,38.1,30.24,WSW,253,1.0,1.0,62,0.00,,,0.00,Wunderground v.1.15,2013-04-28 07:51:00,
2013-04-28 03:54:00,50.6,38.1,30.24,West,271,1.0,4.0,62,0.00,,,0.00,Wunderground v.1.15,2013-04-28 07:54:00,
2013-04-28 03:55:00,50.6,38.1,30.24,SW,232,0.0,4.0,62,0.00,,,0.00,Wunderground v.1.15,2013-04-28 07:55:00,
2013-04-28 03:57:00,50.6,38.1,30.24,East,99,1.0,4.0,62,0.00,,,0.00,Wunderground v.1.15,2013-04-28 07:57:00,
2013-04-28 03:58:00,50.6,38.1,30.24,SW,219,1.0,4.0,62,0.00,,,0.00,Wunderground v.1.15,2013-04-28 07:58:00,
2013-04-28 04:00:00,50.7,38.6,30.24,SSE,151,1.0,1.0,63,0.00,,,0.00,Wunderground v.1.15,2013-04-28 08:00:00,
2013-04-28 04:02:00,50.6,38.5,30.24,WSW,244,1.0,8.0,63,0.00,,,0.00,Wunderground v.1.15,2013-04-28 08:02:00,
2013-04-28 04:04:00,50.6,38.9,30.24,South,183,1.0,8.0,64,0.00,,,0.00,Wunderground v.1.15,2013-04-28 08:04:00,
2013-04-28 04:06:00,50.5,38.8,30.24,WSW,249,1.0,8.0,64,0.00,,,0.00,Wunderground v.1.15,2013-04-28 08:06:00,
2013-04-28 04:08:00,50.5,38.8,30.24,WSW,249,1.0,8.0,64,0.00,,,0.00,Wunderground v.1.15,2013-04-28 08:08:00,
2013-04-28 04:09:00,50.5,38.8,30.24,WSW,249,1.0,8.0,64,0.00,,,0.00,Wunderground v.1.15,2013-04-28 08:09:00,
2013-04-28 04:11:00,50.4,38.7,30.24,SE,132,1.0,1.0,64,0.00,,,0.00,Wunderground v.1.15,2013-04-28 08:11:00,
2013-04-28 04:12:00,50.4,38.7,30.24,SE,141,1.0,1.0,64,0.00,,,0.00,Wunderground v.1.15,2013-04-28 08:12:00,
2013-04-28 04:14:00,50.3,39.0,30.24,SSE,153,0.0,1.0,65,0.00,,,0.00,Wunderground v.1.15,2013-04-28 08:14:00,
2013-04-28 04:15:00,50.3,39.0,30.24,SW,231,0.0,1.0,65,0.00,,,0.00,Wunderground v.1.15,2013-04-28 08:15:00,
2013-04-28 04:20:00,50.2,38.9,30.24,SW,229,0.0,0.0,65,0.00,,,0.00,Wunderground v.1.15,2013-04-28 08:20:00,
2013-04-28 04:21:00,50.2,38.9,30.24,SW,229,0.0,0.0,65,0.00,,,0.00,Wunderground v.1.15,2013-04-28 08:21:00,
2013-04-28 04:22:00,50.2,38.9,30.24,SW,228,0.0,0.0,65,0.00,,,0.00,Wunderground v.1.15,2013-04-28 08:22:00,
2013-04-28 04:25:00,50.2,38.9,30.24,SW,231,0.0,0.0,65,0.00,,,0.00,Wunderground v.1.15,2013-04-28 08:25:00,
2013-04-28 04:26:00,50.2,38.9,30.24,WSW,242,0.0,2.0,65,0.00,,,0.00,Wunderground v.1.15,2013-04-28 08:26:00,
2013-04-28 04:29:00,50.1,38.8,30.24,WSW,257,0.0,2.0,65,0.00,,,0.00,Wunderground v.1.15,2013-04-28 08:29:00,
2013-04-28 04:31:00,50.0,38.7,30.23,WSW,257,0.0,6.0,65,0.00,,,0.00,Wunderground v.1.15,2013-04-28 08:31:00,
2013-04-28 04:33:00,50.1,38.4,30.23,ESE,110,0.0,6.0,64,0.00,,,0.00,Wunderground v.1.15,2013-04-28 08:33:00,
2013-04-28 04:35:00,50.1,38.4,30.23,SE,134,0.0,6.0,64,0.00,,,0.00,Wunderground v.1.15,2013-04-28 08:35:00,
2013-04-28 04:37:00,50.1,38.0,30.23,WSW,244,0.0,6.0,63,0.00,,,0.00,Wunderground v.1.15,2013-04-28 08:37:00,
2013-04-28 04:38:00,50.1,38.0,30.24,WSW,245,0.0,6.0,63,0.00,,,0.00,Wunderground v.1.15,2013-04-28 08:38:00,
2013-04-28 04:40:00,50.1,38.0,30.24,West,262,0.0,0.0,63,0.00,,,0.00,Wunderground v.1.15,2013-04-28 08:40:00,
2013-04-28 04:43:00,50.1,37.6,30.24,WSW,253,0.0,1.0,62,0.00,,,0.00,Wunderground v.1.15,2013-04-28 08:43:00,
2013-04-28 04:44:00,50.1,38.0,30.24,West,259,1.0,1.0,63,0.00,,,0.00,Wunderground v.1.15,2013-04-28 08:44:00,
2013-04-28 04:47:00,50.2,37.7,30.24,West,271,0.0,1.0,62,0.00,,,0.00,Wunderground v.1.15,2013-04-28 08:47:00,
2013-04-28 04:49:00,50.2,38.1,30.24,West,271,0.0,1.0,63,0.00,,,0.00,Wunderground v.1.15,2013-04-28 08:49:00,
2013-04-28 04:50:00,50.1,38.0,30.24,West,279,0.0,0.0,63,0.00,,,0.00,Wunderground v.1.15,2013-04-28 08:50:00,
2013-04-28 04:51:00,50.1,37.6,30.24,West,276,0.0,0.0,62,0.00,,,0.00,Wunderground v.1.15,2013-04-28 08:51:00,
2013-04-28 04:52:00,50.1,37.6,30.24,West,276,0.0,0.0,62,0.00,,,0.00,Wunderground v.1.15,2013-04-28 08:52:00,
2013-04-28 04:54:00,50.0,37.5,30.24,SSE,148,0.0,0.0,62,0.00,,,0.00,Wunderground v.1.15,2013-04-28 08:54:00,
2013-04-28 04:56:00,50.0,37.9,30.23,WSW,238,0.0,0.0,63,0.00,,,0.00,Wunderground v.1.15,2013-04-28 08:56:00,
2013-04-28 04:58:00,49.9,37.8,30.23,WSW,241,0.0,0.0,63,0.00,,,0.00,Wunderground v.1.15,2013-04-28 08:58:00,
2013-04-28 04:59:00,49.9,37.8,30.24,WSW,238,0.0,0.0,63,0.00,,,0.00,Wunderground v.1.15,2013-04-28 08:59:00,
2013-04-28 05:02:00,49.9,37.8,30.23,West,271,0.0,6.0,63,0.00,,,0.00,Wunderground v.1.15,2013-04-28 09:02:00,
2013-04-28 05:04:00,49.9,37.8,30.23,SW,236,0.0,6.0,63,0.00,,,0.00,Wunderground v.1.15,2013-04-28 09:04:00,
2013-04-28 05:05:00,49.9,37.8,30.23,WNW,294,0.0,6.0,63,0.00,,,0.00,Wunderground v.1.15,2013-04-28 09:05:00,
2013-04-28 05:06:00,49.9,37.8,30.23,West,261,0.0,6.0,63,0.00,,,0.00,Wunderground v.1.15,2013-04-28 09:06:00,
2013-04-28 05:08:00,49.9,37.8,30.23,West,261,0.0,6.0,63,0.00,,,0.00,Wunderground v.1.15,2013-04-28 09:08:00,
2013-04-28 05:11:00,49.8,37.7,30.23,WSW,257,0.0,0.0,63,0.00,,,0.00,Wunderground v.1.15,2013-04-28 09:11:00,
2013-04-28 05:12:00,49.7,37.6,30.23,WSW,258,0.0,0.0,63,0.00,,,0.00,Wunderground v.1.15,2013-04-28 09:12:00,
2013-04-28 05:14:00,49.7,37.6,30.23,West,273,0.0,0.0,63,0.00,,,0.00,Wunderground v.1.15,2013-04-28 09:14:00,
2013-04-28 05:16:00,49.7,38.0,30.23,SSE,152,0.0,0.0,64,0.00,,,0.00,Wunderground v.1.15,2013-04-28 09:16:00,
2013-04-28 05:20:00,49.6,37.9,30.23,NNW,340,0.0,0.0,64,0.00,,,0.00,Wunderground v.1.15,2013-04-28 09:20:00,
2013-04-28 05:21:00,49.7,37.6,30.23,SW,233,0.0,0.0,63,0.00,,,0.00,Wunderground v.1.15,2013-04-28 09:21:00,
2013-04-28 05:23:00,49.6,37.5,30.23,SW,225,0.0,0.0,63,0.00,,,0.00,Wunderground v.1.15,2013-04-28 09:23:00,
2013-04-28 05:24:00,49.6,37.9,30.23,NW,309,0.0,0.0,64,0.00,,,0.00,Wunderground v.1.15,2013-04-28 09:24:00,
2013-04-28 05:26:00,49.5,37.8,30.23,WSW,255,0.0,2.0,64,0.00,,,0.00,Wunderground v.1.15,2013-04-28 09:26:00,
2013-04-28 05:27:00,49.5,37.8,30.23,WSW,257,0.0,2.0,64,0.00,,,0.00,Wunderground v.1.15,2013-04-28 09:27:00,
2013-04-28 05:33:00,49.5,37.8,30.23,West,271,0.0,5.0,64,0.00,,,0.00,Wunderground v.1.15,2013-04-28 09:33:00,
2013-04-28 05:34:00,49.4,37.7,30.23,West,270,0.0,5.0,64,0.00,,,0.00,Wunderground v.1.15,2013-04-28 09:34:00,
2013-04-28 05:35:00,49.4,37.7,30.23,West,269,0.0,5.0,64,0.00,,,0.00,Wunderground v.1.15,2013-04-28 09:35:00,
2013-04-28 05:38:00,49.4,38.1,30.23,West,264,0.0,5.0,65,0.00,,,0.00,Wunderground v.1.15,2013-04-28 09:38:00,
2013-04-28 05:40:00,49.4,37.7,30.22,SW,232,0.0,0.0,64,0.00,,,0.00,Wunderground v.1.15,2013-04-28 09:40:00,
2013-04-28 05:41:00,49.4,37.7,30.23,SW,232,0.0,0.0,64,0.00,,,0.00,Wunderground v.1.15,2013-04-28 09:41:00,
2013-04-28 05:42:00,49.4,37.7,30.22,SE,144,0.0,0.0,64,0.00,,,0.00,Wunderground v.1.15,2013-04-28 09:42:00,
2013-04-28 05:44:00,49.4,37.7,30.23,South,175,0.0,0.0,64,0.00,,,0.00,Wunderground v.1.15,2013-04-28 09:44:00,
2013-04-28 05:45:00,49.4,37.7,30.22,South,182,0.0,0.0,64,0.00,,,0.00,Wunderground v.1.15,2013-04-28 09:45:00,
2013-04-28 05:46:00,49.4,37.7,30.22,East,88,0.0,2.0,64,0.00,,,0.00,Wunderground v.1.15,2013-04-28 09:46:00,
2013-04-28 05:47:00,49.4,37.7,30.22,East,86,0.0,2.0,64,0.00,,,0.00,Wunderground v.1.15,2013-04-28 09:47:00,
2013-04-28 05:48:00,49.4,37.7,30.22,East,81,0.0,2.0,64,0.00,,,0.00,Wunderground v.1.15,2013-04-28 09:48:00,
2013-04-28 05:51:00,49.5,37.8,30.23,West,260,1.0,2.0,64,0.00,,,0.00,Wunderground v.1.15,2013-04-28 09:51:00,
2013-04-28 05:53:00,49.5,37.4,30.23,WSW,257,1.0,2.0,63,0.00,,,0.00,Wunderground v.1.15,2013-04-28 09:53:00,
2013-04-28 05:54:00,49.6,37.5,30.23,WSW,243,1.0,2.0,63,0.00,,,0.00,Wunderground v.1.15,2013-04-28 09:54:00,
2013-04-28 05:55:00,49.6,37.5,30.23,WSW,242,1.0,2.0,63,0.00,,,0.00,Wunderground v.1.15,2013-04-28 09:55:00,
2013-04-28 05:56:00,49.6,37.5,30.23,SSE,159,1.0,2.0,63,0.00,,,0.00,Wunderground v.1.15,2013-04-28 09:56:00,
2013-04-28 05:59:00,49.7,37.6,30.23,SE,132,1.0,2.0,63,0.00,,,0.00,Wunderground v.1.15,2013-04-28 09:59:00,
2013-04-28 06:00:00,49.7,37.6,30.23,WNW,284,1.0,2.0,63,0.00,,,0.00,Wunderground v.1.15,2013-04-28 10:00:00,
2013-04-28 06:04:00,49.7,37.6,30.23,SSE,163,1.0,7.0,63,0.00,,,0.00,Wunderground v.1.15,2013-04-28 10:04:00,
2013-04-28 06:05:00,49.8,37.7,30.23,WSW,249,1.0,7.0,63,0.00,,,0.00,Wunderground v.1.15,2013-04-28 10:05:00,
2013-04-28 06:06:00,49.8,37.7,30.23,WSW,249,1.0,7.0,63,0.00,,,0.00,Wunderground v.1.15,2013-04-28 10:06:00,
2013-04-28 06:07:00,49.8,37.7,30.23,SW,228,1.0,7.0,63,0.00,,,0.00,Wunderground v.1.15,2013-04-28 10:07:00,
2013-04-28 06:11:00,49.7,37.6,30.23,NW,304,1.0,1.0,63,0.00,,,0.00,Wunderground v.1.15,2013-04-28 10:11:00,
2013-04-28 06:12:00,49.6,37.9,30.23,South,176,1.0,2.0,64,0.00,,,0.00,Wunderground v.1.15,2013-04-28 10:12:00,
2013-04-28 06:13:00,49.7,37.6,30.23,SSW,198,1.0,2.0,63,0.00,,,0.00,Wunderground v.1.15,2013-04-28 10:13:00,
2013-04-28 06:14:00,49.7,37.6,30.23,SSE,167,1.0,2.0,63,0.00,,,0.00,Wunderground v.1.15,2013-04-28 10:14:00,
2013-04-28 06:16:00,49.6,37.5,30.23,West,267,1.0,4.0,63,0.00,,,0.00,Wunderground v.1.15,2013-04-28 10:16:00,
2013-04-28 06:19:00,49.6,37.5,30.23,WSW,257,1.0,4.0,63,0.00,,,0.00,Wunderground v.1.15,2013-04-28 10:19:00,
2013-04-28 06:21:00,49.6,37.5,30.23,West,280,1.0,1.0,63,0.00,,,0.00,Wunderground v.1.15,2013-04-28 10:21:00,
2013-04-28 06:22:00,49.6,37.5,30.23,West,265,1.0,1.0,63,0.00,,,0.00,Wunderground v.1.15,2013-04-28 10:22:00,
2013-04-28 06:25:00,49.5,37.4,30.23,West,265,1.0,1.0,63,0.00,,,0.00,Wunderground v.1.15,2013-04-28 10:25:00,
2013-04-28 06:28:00,49.4,37.3,30.23,WSW,257,0.0,1.0,63,0.00,,,0.00,Wunderground v.1.15,2013-04-28 10:28:00,
2013-04-28 06:29:00,49.4,37.3,30.23,West,265,0.0,1.0,63,0.00,,,0.00,Wunderground v.1.15,2013-04-28 10:29:00,
2013-04-28 06:34:00,49.4,37.3,30.24,West,280,0.0,7.0,63,0.00,,,0.00,Wunderground v.1.15,2013-04-28 10:34:00,
2013-04-28 06:37:00,49.4,37.7,30.24,West,280,1.0,7.0,64,0.00,,,0.00,Wunderground v.1.15,2013-04-28 10:37:00,
2013-04-28 06:40:00,49.3,37.6,30.24,WSW,248,1.0,1.0,64,0.00,,,0.00,Wunderground v.1.15,2013-04-28 10:40:00,
2013-04-28 06:43:00,49.3,37.2,30.24,West,259,1.0,1.0,63,0.00,,,0.00,Wunderground v.1.15,2013-04-28 10:43:00,
2013-04-28 06:46:00,49.3,37.6,30.24,SW,232,0.0,1.0,64,0.00,,,0.00,Wunderground v.1.15,2013-04-28 10:46:00,
2013-04-28 06:47:00,49.3,37.6,30.24,West,263,0.0,1.0,64,0.00,,,0.00,Wunderground v.1.15,2013-04-28 10:47:00,
2013-04-28 06:50:00,49.4,37.3,30.25,WNW,288,1.0,1.0,63,0.00,,,0.00,Wunderground v.1.15,2013-04-28 10:50:00,
2013-04-28 06:52:00,49.4,37.3,30.25,WSW,255,1.0,1.0,63,0.00,,,0.00,Wunderground v.1.15,2013-04-28 10:52:00,
2013-04-28 06:53:00,49.4,37.3,30.25,NE,38,1.0,1.0,63,0.00,,,0.00,Wunderground v.1.15,2013-04-28 10:53:00,
2013-04-28 06:54:00,49.4,37.7,30.25,NE,54,1.0,1.0,64,0.00,,,0.00,Wunderground v.1.15,2013-04-28 10:54:00,
2013-04-28 06:56:00,49.4,37.7,30.24,WSW,248,1.0,1.0,64,0.00,,,0.00,Wunderground v.1.15,2013-04-28 10:56:00,
2013-04-28 07:00:00,49.4,38.1,30.25,West,269,0.0,0.0,65,0.00,,,0.00,Wunderground v.1.15,2013-04-28 11:00:00,
2013-04-28 07:01:00,49.5,38.2,30.24,West,268,0.0,7.0,65,0.00,,,0.00,Wunderground v.1.15,2013-04-28 11:01:00,
2013-04-28 07:02:00,49.5,38.2,30.25,NNE,19,0.0,7.0,65,0.00,,,0.00,Wunderground v.1.15,2013-04-28 11:02:00,
2013-04-28 07:05:00,49.5,38.2,30.25,WSW,250,0.0,7.0,65,0.00,,,0.00,Wunderground v.1.15,2013-04-28 11:05:00,
2013-04-28 07:07:00,49.6,38.3,30.24,SSE,168,1.0,7.0,65,0.00,,,0.00,Wunderground v.1.15,2013-04-28 11:07:00,
2013-04-28 07:11:00,49.6,37.9,30.24,SSE,159,0.0,0.0,64,0.00,,,0.00,Wunderground v.1.15,2013-04-28 11:11:00,
2013-04-28 07:13:00,49.6,37.9,30.24,SW,225,1.0,1.0,64,0.00,,,0.00,Wunderground v.1.15,2013-04-28 11:13:00,
2013-04-28 07:16:00,49.7,38.0,30.24,WSW,245,1.0,1.0,64,0.00,,,0.00,Wunderground v.1.15,2013-04-28 11:16:00,
2013-04-28 07:17:00,49.8,38.1,30.25,WSW,247,1.0,1.0,64,0.00,,,0.00,Wunderground v.1.15,2013-04-28 11:17:00,
2013-04-28 07:19:00,49.8,38.1,30.25,West,277,1.0,1.0,64,0.00,,,0.00,Wunderground v.1.15,2013-04-28 11:19:00,
2013-04-28 07:22:00,49.9,37.8,30.24,SW,235,0.0,1.0,63,0.00,,,0.00,Wunderground v.1.15,2013-04-28 11:22:00,
2013-04-28 07:24:00,50.0,37.5,30.24,WSW,254,0.0,2.0,62,0.00,,,0.00,Wunderground v.1.15,2013-04-28 11:24:00,
2013-04-28 07:27:00,50.1,37.2,30.24,WSW,255,1.0,5.0,61,0.00,,,0.00,Wunderground v.1.15,2013-04-28 11:27:00,
2013-04-28 07:28:00,50.2,37.3,30.24,SE,128,1.0,6.0,61,0.00,,,0.00,Wunderground v.1.15,2013-04-28 11:28:00,
2013-04-28 07:31:00,50.3,37.4,30.24,WSW,244,1.0,12.0,61,0.00,,,0.00,Wunderground v.1.15,2013-04-28 11:31:00,
2013-04-28 07:32:00,50.3,37.4,30.25,South,180,1.0,12.0,61,0.00,,,0.00,Wunderground v.1.15,2013-04-28 11:32:00,
2013-04-28 07:33:00,50.4,37.0,30.25,West,259,1.0,12.0,60,0.00,,,0.00,Wunderground v.1.15,2013-04-28 11:33:00,
2013-04-28 07:35:00,50.4,37.0,30.24,West,275,1.0,12.0,60,0.00,,,0.00,Wunderground v.1.15,2013-04-28 11:35:00,
2013-04-28 07:37:00,50.5,37.1,30.25,SSW,196,1.0,12.0,60,0.00,,,0.00,Wunderground v.1.15,2013-04-28 11:37:00,
2013-04-28 07:38:00,50.5,37.1,30.25,SW,228,1.0,12.0,60,0.00,,,0.00,Wunderground v.1.15,2013-04-28 11:38:00,
2013-04-28 07:42:00,50.6,37.2,30.25,SW,226,1.0,1.0,60,0.00,,,0.00,Wunderground v.1.15,2013-04-28 11:42:00,
2013-04-28 07:44:00,50.6,37.2,30.25,South,175,1.0,1.0,60,0.00,,,0.00,Wunderground v.1.15,2013-04-28 11:44:00,
2013-04-28 07:50:00,50.8,37.4,30.25,West,265,1.0,1.0,60,0.00,,,0.00,Wunderground v.1.15,2013-04-28 11:50:00,
2013-04-28 07:52:00,50.8,37.4,30.25,SSW,211,1.0,1.0,60,0.00,,,0.00,Wunderground v.1.15,2013-04-28 11:52:00,
2013-04-28 07:54:00,50.8,37.4,30.25,WNW,296,1.0,2.0,60,0.00,,,0.00,Wunderground v.1.15,2013-04-28 11:54:00,
2013-04-28 07:56:00,50.8,37.4,30.25,South,182,1.0,2.0,60,0.00,,,0.00,Wunderground v.1.15,2013-04-28 11:56:00,
2013-04-28 07:57:00,50.8,37.4,30.25,WSW,246,1.0,2.0,60,0.00,,,0.00,Wunderground v.1.15,2013-04-28 11:57:00,
2013-04-28 07:59:00,50.8,37.4,30.25,South,175,1.0,2.0,60,0.00,,,0.00,Wunderground v.1.15,2013-04-28 11:59:00,
2013-04-28 08:01:00,50.9,37.5,30.25,SSW,203,0.0,6.0,60,0.00,,,0.00,Wunderground v.1.15,2013-04-28 12:01:00,
2013-04-28 08:02:00,50.9,37.5,30.25,SSW,205,0.0,6.0,60,0.00,,,0.00,Wunderground v.1.15,2013-04-28 12:02:00,
2013-04-28 08:03:00,50.9,37.5,30.25,SSE,157,0.0,6.0,60,0.00,,,0.00,Wunderground v.1.15,2013-04-28 12:03:00,
2013-04-28 08:04:00,51.0,37.6,30.25,SSE,147,1.0,6.0,60,0.00,,,0.00,Wunderground v.1.15,2013-04-28 12:04:00,
2013-04-28 08:06:00,51.1,37.7,30.25,SW,216,0.0,6.0,60,0.00,,,0.00,Wunderground v.1.15,2013-04-28 12:06:00,
2013-04-28 08:09:00,51.1,37.7,30.25,North,360,1.0,6.0,60,0.00,,,0.00,Wunderground v.1.15,2013-04-28 12:09:00,
2013-04-28 08:10:00,51.2,37.8,30.25,SSW,200,1.0,1.0,60,0.00,,,0.00,Wunderground v.1.15,2013-04-28 12:10:00,
2013-04-28 08:13:00,51.4,38.0,30.25,NE,42,1.0,1.0,60,0.00,,,0.00,Wunderground v.1.15,2013-04-28 12:13:00,
2013-04-28 08:14:00,51.4,38.0,30.25,ENE,63,0.0,1.0,60,0.00,,,0.00,Wunderground v.1.15,2013-04-28 12:14:00,
2013-04-28 08:15:00,51.5,38.1,30.25,SSW,208,0.0,1.0,60,0.00,,,0.00,Wunderground v.1.15,2013-04-28 12:15:00,
2013-04-28 08:16:00,51.5,38.1,30.25,South,178,1.0,5.0,60,0.00,,,0.00,Wunderground v.1.15,2013-04-28 12:16:00,
2013-04-28 08:20:00,51.7,38.3,30.24,SW,222,0.0,0.0,60,0.00,,,0.00,Wunderground v.1.15,2013-04-28 12:20:00,
2013-04-28 08:21:00,51.7,38.3,30.24,NW,307,0.0,1.0,60,0.00,,,0.00,Wunderground v.1.15,2013-04-28 12:21:00,
2013-04-28 08:23:00,51.8,38.3,30.24,South,178,1.0,2.0,60,0.00,,,0.00,Wunderground v.1.15,2013-04-28 12:23:00,
2013-04-28 08:26:00,51.9,38.0,30.24,SW,214,1.0,7.0,59,0.00,,,0.00,Wunderground v.1.15,2013-04-28 12:26:00,
2013-04-28 08:27:00,51.9,38.0,30.24,SSW,204,1.0,7.0,59,0.00,,,0.00,Wunderground v.1.15,2013-04-28 12:27:00,
2013-04-28 08:30:00,52.1,38.6,30.24,SW,217,1.0,1.0,60,0.00,,,0.00,Wunderground v.1.15,2013-04-28 12:30:00,
2013-04-28 08:31:00,52.2,38.3,30.24,West,261,1.0,7.0,59,0.00,,,0.00,Wunderground v.1.15,2013-04-28 12:31:00,
2013-04-28 08:32:00,52.2,38.3,30.24,SSW,193,1.0,7.0,59,0.00,,,0.00,Wunderground v.1.15,2013-04-28 12:32:00,
2013-04-28 08:34:00,52.3,38.4,30.24,SW,217,1.0,7.0,59,0.00,,,0.00,Wunderground v.1.15,2013-04-28 12:34:00,
2013-04-28 08:36:00,52.4,38.5,30.24,SSW,202,1.0,7.0,59,0.00,,,0.00,Wunderground v.1.15,2013-04-28 12:36:00,
2013-04-28 08:37:00,52.4,38.5,30.24,SW,236,1.0,7.0,59,0.00,,,0.00,Wunderground v.1.15,2013-04-28 12:37:00,
2013-04-28 08:40:00,52.4,38.5,30.24,SW,234,1.0,1.0,59,0.00,,,0.00,Wunderground v.1.15,2013-04-28 12:40:00,
2013-04-28 08:42:00,52.5,39.0,30.24,WNW,298,1.0,1.0,60,0.00,,,0.00,Wunderground v.1.15,2013-04-28 12:42:00,
2013-04-28 08:44:00,52.6,38.7,30.24,WNW,288,1.0,1.0,59,0.00,,,0.00,Wunderground v.1.15,2013-04-28 12:44:00,
2013-04-28 08:46:00,52.9,39.0,30.24,SSE,156,1.0,4.0,59,0.00,,,0.00,Wunderground v.1.15,2013-04-28 12:46:00,
2013-04-28 08:48:00,53.0,39.0,30.24,South,186,1.0,4.0,59,0.00,,,0.00,Wunderground v.1.15,2013-04-28 12:48:00,
2013-04-28 08:49:00,53.1,39.1,30.24,SW,223,1.0,6.0,59,0.00,,,0.00,Wunderground v.1.15,2013-04-28 12:49:00,
2013-04-28 08:53:00,53.4,39.4,30.24,WSW,248,1.0,1.0,59,0.00,,,0.00,Wunderground v.1.15,2013-04-28 12:53:00,
2013-04-28 08:55:00,53.5,39.5,30.24,ENE,65,1.0,1.0,59,0.00,,,0.00,Wunderground v.1.15,2013-04-28 12:55:00,
2013-04-28 08:56:00,53.6,39.6,30.24,WNW,283,1.0,1.0,59,0.00,,,0.00,Wunderground v.1.15,2013-04-28 12:56:00,
2013-04-28 08:59:00,53.8,39.4,30.24,SE,144,1.0,2.0,58,0.00,,,0.00,Wunderground v.1.15,2013-04-28 12:59:00,
2013-04-28 09:02:00,54.0,39.5,30.24,WSW,250,0.0,8.0,58,0.00,,,0.00,Wunderground v.1.15,2013-04-28 13:02:00,
2013-04-28 09:04:00,54.2,40.2,30.24,SSW,204,0.0,8.0,59,0.00,,,0.00,Wunderground v.1.15,2013-04-28 13:04:00,
2013-04-28 09:06:00,54.4,39.5,30.24,West,263,1.0,9.0,57,0.00,,,0.00,Wunderground v.1.15,2013-04-28 13:06:00,
2013-04-28 09:08:00,54.5,39.6,30.24,WSW,237,1.0,9.0,57,0.00,,,0.00,Wunderground v.1.15,2013-04-28 13:08:00,
2013-04-28 09:09:00,54.5,39.6,30.24,SSE,152,1.0,9.0,57,0.00,,,0.00,Wunderground v.1.15,2013-04-28 13:09:00,
2013-04-28 09:10:00,54.6,40.1,30.24,SSE,153,1.0,1.0,58,0.00,,,0.00,Wunderground v.1.15,2013-04-28 13:10:00,
2013-04-28 09:11:00,54.8,40.3,30.24,SSW,198,1.0,1.0,58,0.00,,,0.00,Wunderground v.1.15,2013-04-28 13:11:00,
2013-04-28 09:12:00,54.9,40.4,30.24,West,269,1.0,3.0,58,0.00,,,0.00,Wunderground v.1.15,2013-04-28 13:12:00,
2013-04-28 09:16:00,55.1,40.6,30.24,SSW,201,1.0,3.0,58,0.00,,,0.00,Wunderground v.1.15,2013-04-28 13:16:00,
2013-04-28 09:17:00,55.1,40.6,30.24,SSW,202,0.0,3.0,58,0.00,,,0.00,Wunderground v.1.15,2013-04-28 13:17:00,
2013-04-28 09:22:00,55.3,40.8,30.24,West,273,1.0,5.0,58,0.00,,,0.00,Wunderground v.1.15,2013-04-28 13:22:00,
2013-04-28 09:23:00,55.2,40.7,30.24,West,272,1.0,5.0,58,0.00,,,0.00,Wunderground v.1.15,2013-04-28 13:23:00,
2013-04-28 09:25:00,55.1,40.6,30.24,West,272,0.0,5.0,58,0.00,,,0.00,Wunderground v.1.15,2013-04-28 13:25:00,
2013-04-28 09:26:00,55.1,41.0,30.24,SSW,199,1.0,5.0,59,0.00,,,0.00,Wunderground v.1.15,2013-04-28 13:26:00,
2013-04-28 09:29:00,55.0,40.5,30.24,SSE,150,1.0,5.0,58,0.00,,,0.00,Wunderground v.1.15,2013-04-28 13:29:00,
2013-04-28 09:30:00,55.0,40.9,30.24,West,265,1.0,1.0,59,0.00,,,0.00,Wunderground v.1.15,2013-04-28 13:30:00,
2013-04-28 09:32:00,54.9,40.8,30.24,West,270,1.0,16.0,59,0.00,,,0.00,Wunderground v.1.15,2013-04-28 13:32:00,
2013-04-28 09:34:00,54.8,40.7,30.24,West,271,1.0,16.0,59,0.00,,,0.00,Wunderground v.1.15,2013-04-28 13:34:00,
2013-04-28 09:35:00,54.8,40.7,30.24,WNW,282,1.0,16.0,59,0.00,,,0.00,Wunderground v.1.15,2013-04-28 13:35:00,
2013-04-28 09:37:00,54.8,40.7,30.24,SW,215,1.0,16.0,59,0.00,,,0.00,Wunderground v.1.15,2013-04-28 13:37:00,
2013-04-28 09:40:00,54.8,40.7,30.24,SE,134,1.0,1.0,59,0.00,,,0.00,Wunderground v.1.15,2013-04-28 13:40:00,
2013-04-28 09:41:00,54.8,40.3,30.24,SW,226,0.0,1.0,58,0.00,,,0.00,Wunderground v.1.15,2013-04-28 13:41:00,
2013-04-28 09:43:00,54.9,40.8,30.24,WSW,248,0.0,1.0,59,0.00,,,0.00,Wunderground v.1.15,2013-04-28 13:43:00,
2013-04-28 09:44:00,54.9,40.4,30.24,West,259,0.0,1.0,58,0.00,,,0.00,Wunderground v.1.15,2013-04-28 13:44:00,
2013-04-28 09:45:00,54.9,40.4,30.24,West,259,0.0,1.0,58,0.00,,,0.00,Wunderground v.1.15,2013-04-28 13:45:00,
2013-04-28 09:48:00,55.1,41.0,30.24,West,265,0.0,1.0,59,0.00,,,0.00,Wunderground v.1.15,2013-04-28 13:48:00,
2013-04-28 09:49:00,55.1,41.5,30.24,West,264,0.0,2.0,60,0.00,,,0.00,Wunderground v.1.15,2013-04-28 13:49:00,
2013-04-28 09:50:00,55.1,40.6,30.24,West,264,0.0,0.0,58,0.00,,,0.00,Wunderground v.1.15,2013-04-28 13:50:00,
2013-04-28 09:52:00,55.1,40.6,30.24,West,264,0.0,0.0,58,0.00,,,0.00,Wunderground v.1.15,2013-04-28 13:52:00,
2013-04-28 09:54:00,55.2,40.2,30.24,SE,128,0.0,5.0,57,0.00,,,0.00,Wunderground v.1.15,2013-04-28 13:54:00,
2013-04-28 09:57:00,55.5,41.0,30.24,WNW,297,1.0,5.0,58,0.00,,,0.00,Wunderground v.1.15,2013-04-28 13:57:00,
2013-04-28 09:58:00,55.5,40.0,30.24,WNW,302,1.0,5.0,56,0.00,,,0.00,Wunderground v.1.15,2013-04-28 13:58:00,
2013-04-28 09:59:00,55.6,40.1,30.24,WNW,302,1.0,5.0,56,0.00,,,0.00,Wunderground v.1.15,2013-04-28 13:59:00,
2013-04-28 10:00:00,55.6,40.6,30.24,WNW,302,0.0,0.0,57,0.00,,,0.00,Wunderground v.1.15,2013-04-28 14:00:00,
2013-04-28 10:04:00,55.7,40.7,30.24,WSW,238,0.0,9.0,57,0.00,,,0.00,Wunderground v.1.15,2013-04-28 14:04:00,
2013-04-28 10:05:00,55.8,40.8,30.24,SSE,163,0.0,9.0,57,0.00,,,0.00,Wunderground v.1.15,2013-04-28 14:05:00,
2013-04-28 10:07:00,55.9,40.4,30.24,SE,133,1.0,9.0,56,0.00,,,0.00,Wunderground v.1.15,2013-04-28 14:07:00,
2013-04-28 10:09:00,56.0,41.0,30.24,ESE,121,1.0,9.0,57,0.00,,,0.00,Wunderground v.1.15,2013-04-28 14:09:00,
2013-04-28 10:11:00,56.3,41.3,30.24,SSE,159,1.0,2.0,57,0.00,,,0.00,Wunderground v.1.15,2013-04-28 14:11:00,
2013-04-28 10:14:00,56.9,41.4,30.24,SSE,148,1.0,2.0,56,0.00,,,0.00,Wunderground v.1.15,2013-04-28 14:14:00,
2013-04-28 10:15:00,57.2,42.1,30.24,SSE,156,1.0,2.0,57,0.00,,,0.00,Wunderground v.1.15,2013-04-28 14:15:00,
2013-04-28 10:16:00,57.4,42.3,30.24,South,174,1.0,2.0,57,0.00,,,0.00,Wunderground v.1.15,2013-04-28 14:16:00,
2013-04-28 10:17:00,57.6,42.0,30.24,West,271,1.0,2.0,56,0.00,,,0.00,Wunderground v.1.15,2013-04-28 14:17:00,
2013-04-28 10:20:00,58.3,42.2,30.24,SSE,152,1.0,1.0,55,0.00,,,0.00,Wunderground v.1.15,2013-04-28 14:20:00,
2013-04-28 10:21:00,58.5,42.4,30.24,ESE,105,1.0,1.0,55,0.00,,,0.00,Wunderground v.1.15,2013-04-28 14:21:00,
2013-04-28 10:23:00,58.8,42.2,30.24,West,271,1.0,4.0,54,0.00,,,0.00,Wunderground v.1.15,2013-04-28 14:23:00,
2013-04-28 10:25:00,59.0,42.8,30.24,ENE,67,1.0,6.0,55,0.00,,,0.00,Wunderground v.1.15,2013-04-28 14:25:00,
2013-04-28 10:27:00,59.0,42.4,30.24,ESE,103,1.0,6.0,54,0.00,,,0.00,Wunderground v.1.15,2013-04-28 14:27:00,
2013-04-28 10:28:00,59.2,43.0,30.24,South,177,1.0,6.0,55,0.00,,,0.00,Wunderground v.1.15,2013-04-28 14:28:00,
2013-04-28 10:32:00,59.0,42.4,30.24,East,89,1.0,7.0,54,0.00,,,0.00,Wunderground v.1.15,2013-04-28 14:32:00,
2013-04-28 10:34:00,59.0,42.4,30.24,SW,218,1.0,7.0,54,0.00,,,0.00,Wunderground v.1.15,2013-04-28 14:34:00,
2013-04-28 10:36:00,59.0,42.8,30.25,SSE,147,1.0,7.0,55,0.00,,,0.00,Wunderground v.1.15,2013-04-28 14:36:00,
2013-04-28 10:39:00,58.9,42.8,30.25,SSW,207,2.0,7.0,55,0.00,,,0.00,Wunderground v.1.15,2013-04-28 14:39:00,
2013-04-28 10:40:00,58.7,42.6,30.24,South,169,2.0,2.0,55,0.00,,,0.00,Wunderground v.1.15,2013-04-28 14:40:00,
2013-04-28 10:41:00,58.7,43.0,30.25,South,170,2.0,2.0,56,0.00,,,0.00,Wunderground v.1.15,2013-04-28 14:41:00,
2013-04-28 10:46:00,58.6,43.4,30.24,ESE,105,2.0,4.0,57,0.00,,,0.00,Wunderground v.1.15,2013-04-28 14:46:00,
2013-04-28 10:48:00,58.6,42.9,30.24,WSW,258,2.0,13.0,56,0.00,,,0.00,Wunderground v.1.15,2013-04-28 14:48:00,
2013-04-28 10:49:00,58.6,42.9,30.24,ESE,105,2.0,13.0,56,0.00,,,0.00,Wunderground v.1.15,2013-04-28 14:49:00,
2013-04-28 10:50:00,58.6,43.4,30.24,South,190,2.0,2.0,57,0.00,,,0.00,Wunderground v.1.15,2013-04-28 14:50:00,
2013-04-28 10:51:00,58.7,43.0,30.24,SE,130,2.0,7.0,56,0.00,,,0.00,Wunderground v.1.15,2013-04-28 14:51:00,
2013-04-28 10:54:00,58.6,42.9,30.24,SSE,154,2.0,7.0,56,0.00,,,0.00,Wunderground v.1.15,2013-04-28 14:54:00,
2013-04-28 10:57:00,58.2,43.0,30.24,SSE,167,3.0,7.0,57,0.00,,,0.00,Wunderground v.1.15,2013-04-28 14:57:00,
2013-04-28 11:01:00,58.1,42.9,30.24,NW,310,4.0,9.0,57,0.00,,,0.00,Wunderground v.1.15,2013-04-28 15:01:00,
2013-04-28 11:02:00,58.2,43.5,30.24,SSW,192,4.0,9.0,58,0.00,,,0.00,Wunderground v.1.15,2013-04-28 15:02:00,
2013-04-28 11:05:00,58.3,42.7,30.24,SSE,153,3.0,9.0,56,0.00,,,0.00,Wunderground v.1.15,2013-04-28 15:05:00,
2013-04-28 11:06:00,58.2,43.5,30.24,SE,138,3.0,9.0,58,0.00,,,0.00,Wunderground v.1.15,2013-04-28 15:06:00,
2013-04-28 11:07:00,58.2,43.0,30.24,SE,140,2.0,9.0,57,0.00,,,0.00,Wunderground v.1.15,2013-04-28 15:07:00,
2013-04-28 11:11:00,58.1,42.9,30.24,WNW,286,2.0,3.0,57,0.00,,,0.00,Wunderground v.1.15,2013-04-28 15:11:00,
2013-04-28 11:14:00,57.8,42.7,30.24,SE,138,3.0,8.0,57,0.00,,,0.00,Wunderground v.1.15,2013-04-28 15:14:00,
2013-04-28 11:15:00,57.7,42.6,30.24,South,175,2.0,8.0,57,0.00,,,0.00,Wunderground v.1.15,2013-04-28 15:15:00,
2013-04-28 11:16:00,57.7,42.6,30.24,SE,145,2.0,8.0,57,0.00,,,0.00,Wunderground v.1.15,2013-04-28 15:16:00,
2013-04-28 11:19:00,57.6,42.5,30.24,SSW,205,2.0,8.0,57,0.00,,,0.00,Wunderground v.1.15,2013-04-28 15:19:00,
2013-04-28 11:21:00,57.6,42.5,30.24,SSE,149,2.0,3.0,57,0.00,,,0.00,Wunderground v.1.15,2013-04-28 15:21:00,
2013-04-28 11:22:00,57.6,42.5,30.25,SSW,201,2.0,4.0,57,0.00,,,0.00,Wunderground v.1.15,2013-04-28 15:22:00,
2013-04-28 11:25:00,57.3,42.2,30.25,NNE,13,1.0,4.0,57,0.00,,,0.00,Wunderground v.1.15,2013-04-28 15:25:00,
2013-04-28 11:27:00,57.3,42.6,30.25,ESE,113,1.0,7.0,58,0.00,,,0.00,Wunderground v.1.15,2013-04-28 15:27:00,
2013-04-28 11:29:00,57.3,42.6,30.25,SW,235,2.0,7.0,58,0.00,,,0.00,Wunderground v.1.15,2013-04-28 15:29:00,
2013-04-28 11:31:00,57.3,42.6,30.25,SW,227,1.0,3.0,58,0.00,,,0.00,Wunderground v.1.15,2013-04-28 15:31:00,
2013-04-28 11:32:00,57.4,42.7,30.25,SW,217,1.0,18.0,58,0.00,,,0.00,Wunderground v.1.15,2013-04-28 15:32:00,
2013-04-28 11:34:00,57.6,43.4,30.25,SW,220,1.0,18.0,59,0.00,,,0.00,Wunderground v.1.15,2013-04-28 15:34:00,
2013-04-28 11:37:00,57.8,43.1,30.25,West,275,1.0,18.0,58,0.00,,,0.00,Wunderground v.1.15,2013-04-28 15:37:00,
2013-04-28 11:38:00,57.9,42.8,30.25,West,261,1.0,18.0,57,0.00,,,0.00,Wunderground v.1.15,2013-04-28 15:38:00,
2013-04-28 11:39:00,57.9,42.8,30.25,West,275,1.0,18.0,57,0.00,,,0.00,Wunderground v.1.15,2013-04-28 15:39:00,
2013-04-28 11:41:00,58.0,42.8,30.25,South,190,1.0,1.0,57,0.00,,,0.00,Wunderground v.1.15,2013-04-28 15:41:00,
2013-04-28 11:45:00,58.3,43.6,30.25,WSW,237,1.0,5.0,58,0.00,,,0.00,Wunderground v.1.15,2013-04-28 15:45:00,
2013-04-28 11:46:00,58.4,43.2,30.25,SW,225,1.0,5.0,57,0.00,,,0.00,Wunderground v.1.15,2013-04-28 15:46:00,
2013-04-28 11:47:00,58.3,43.1,30.25,WSW,240,1.0,5.0,57,0.00,,,0.00,Wunderground v.1.15,2013-04-28 15:47:00,
2013-04-28 11:52:00,58.0,42.8,30.25,WSW,242,2.0,4.0,57,0.00,,,0.00,Wunderground v.1.15,2013-04-28 15:52:00,
2013-04-28 11:54:00,58.0,42.8,30.25,SE,145,2.0,4.0,57,0.00,,,0.00,Wunderground v.1.15,2013-04-28 15:54:00,
2013-04-28 11:56:00,58.0,42.8,30.25,East,99,2.0,11.0,57,0.00,,,0.00,Wunderground v.1.15,2013-04-28 15:56:00,
2013-04-28 11:57:00,58.0,42.8,30.25,SSW,213,2.0,11.0,57,0.00,,,0.00,Wunderground v.1.15,2013-04-28 15:57:00,
2013-04-28 11:58:00,58.1,43.4,30.25,SW,215,2.0,11.0,58,0.00,,,0.00,Wunderground v.1.15,2013-04-28 15:58:00,
2013-04-28 11:59:00,58.1,43.4,30.25,SW,215,2.0,11.0,58,0.00,,,0.00,Wunderground v.1.15,2013-04-28 15:59:00,
2013-04-28 12:04:00,58.5,43.3,30.25,SW,218,1.0,14.0,57,0.00,,,0.00,Wunderground v.1.15,2013-04-28 16:04:00,
2013-04-28 12:06:00,58.6,43.4,30.25,WSW,247,1.0,14.0,57,0.00,,,0.00,Wunderground v.1.15,2013-04-28 16:06:00,
2013-04-28 12:07:00,58.7,43.5,30.25,SW,218,1.0,14.0,57,0.00,,,0.00,Wunderground v.1.15,2013-04-28 16:07:00,
2013-04-28 12:08:00,58.7,43.0,30.25,South,173,1.0,14.0,56,0.00,,,0.00,Wunderground v.1.15,2013-04-28 16:08:00,
2013-04-28 12:09:00,58.6,42.9,30.25,South,176,1.0,14.0,56,0.00,,,0.00,Wunderground v.1.15,2013-04-28 16:09:00,
2013-04-28 12:13:00,58.3,42.7,30.25,WNW,299,2.0,2.0,56,0.00,,,0.00,Wunderground v.1.15,2013-04-28 16:13:00,
2013-04-28 12:14:00,58.3,43.1,30.24,West,267,2.0,9.0,57,0.00,,,0.00,Wunderground v.1.15,2013-04-28 16:14:00,
2013-04-28 12:15:00,58.2,42.6,30.24,SE,125,2.0,9.0,56,0.00,,,0.00,Wunderground v.1.15,2013-04-28 16:15:00,
2013-04-28 12:19:00,58.4,42.8,30.24,South,173,2.0,9.0,56,0.00,,,0.00,Wunderground v.1.15,2013-04-28 16:19:00,
2013-04-28 12:20:00,58.3,42.7,30.24,SW,234,2.0,2.0,56,0.00,,,0.00,Wunderground v.1.15,2013-04-28 16:20:00,
2013-04-28 12:23:00,58.2,42.6,30.24,SSE,161,2.0,5.0,56,0.00,,,0.00,Wunderground v.1.15,2013-04-28 16:23:00,
2013-04-28 12:25:00,58.1,42.5,30.24,SSE,155,1.0,6.0,56,0.00,,,0.00,Wunderground v.1.15,2013-04-28 16:25:00,
2013-04-28 12:26:00,58.0,42.8,30.24,SSW,212,1.0,6.0,57,0.00,,,0.00,Wunderground v.1.15,2013-04-28 16:26:00,
2013-04-28 12:27:00,57.9,42.8,30.24,SE,139,2.0,6.0,57,0.00,,,0.00,Wunderground v.1.15,2013-04-28 16:27:00,
2013-04-28 12:30:00,57.8,42.7,30.24,SW,221,1.0,1.0,57,0.00,,,0.00,Wunderground v.1.15,2013-04-28 16:30:00,
2013-04-28 12:31:00,57.8,42.7,30.24,SW,223,1.0,15.0,57,0.00,,,0.00,Wunderground v.1.15,2013-04-28 16:31:00,
2013-04-28 12:32:00,57.8,42.7,30.24,South,184,1.0,15.0,57,0.00,,,0.00,Wunderground v.1.15,2013-04-28 16:32:00,
2013-04-28 12:34:00,57.9,42.8,30.24,WSW,245,1.0,15.0,57,0.00,,,0.00,Wunderground v.1.15,2013-04-28 16:34:00,
2013-04-28 12:36:00,57.8,42.7,30.24,WSW,253,1.0,15.0,57,0.00,,,0.00,Wunderground v.1.15,2013-04-28 16:36:00,
2013-04-28 12:39:00,57.8,42.7,30.24,WNW,284,1.0,15.0,57,0.00,,,0.00,Wunderground v.1.15,2013-04-28 16:39:00,
2013-04-28 12:40:00,57.8,43.1,30.24,WSW,250,1.0,1.0,58,0.00,,,0.00,Wunderground v.1.15,2013-04-28 16:40:00,
2013-04-28 12:42:00,57.7,42.6,30.24,West,276,1.0,3.0,57,0.00,,,0.00,Wunderground v.1.15,2013-04-28 16:42:00,
2013-04-28 12:44:00,57.7,42.6,30.24,SW,227,1.0,3.0,57,0.00,,,0.00,Wunderground v.1.15,2013-04-28 16:44:00,
2013-04-28 12:46:00,57.6,42.5,30.24,SW,225,1.0,3.0,57,0.00,,,0.00,Wunderground v.1.15,2013-04-28 16:46:00,
2013-04-28 12:47:00,57.6,42.9,30.24,SW,225,1.0,3.0,58,0.00,,,0.00,Wunderground v.1.15,2013-04-28 16:47:00,
2013-04-28 12:49:00,57.7,43.0,30.24,West,263,1.0,3.0,58,0.00,,,0.00,Wunderground v.1.15,2013-04-28 16:49:00,
2013-04-28 12:50:00,57.7,43.0,30.24,West,263,1.0,1.0,58,0.00,,,0.00,Wunderground v.1.15,2013-04-28 16:50:00,
2013-04-28 12:53:00,57.8,42.7,30.24,West,267,0.0,7.0,57,0.00,,,0.00,Wunderground v.1.15,2013-04-28 16:53:00,
2013-04-28 12:54:00,57.8,43.1,30.23,West,267,1.0,7.0,58,0.00,,,0.00,Wunderground v.1.15,2013-04-28 16:54:00,
2013-04-28 12:55:00,57.8,42.7,30.23,WSW,257,1.0,7.0,57,0.00,,,0.00,Wunderground v.1.15,2013-04-28 16:55:00,
2013-04-28 12:59:00,57.7,43.0,30.23,SSW,194,1.0,7.0,58,0.00,,,0.00,Wunderground v.1.15,2013-04-28 16:59:00,
2013-04-28 13:01:00,57.7,43.9,30.23,West,263,1.0,6.0,60,0.00,,,0.00,Wunderground v.1.15,2013-04-28 17:01:00,
2013-04-28 13:02:00,57.6,43.4,30.23,West,272,1.0,11.0,59,0.00,,,0.00,Wunderground v.1.15,2013-04-28 17:02:00,
2013-04-28 13:05:00,57.3,44.8,30.24,WSW,246,1.0,11.0,63,0.00,,,0.00,Wunderground v.1.15,2013-04-28 17:05:00,
2013-04-28 13:06:00,57.2,44.7,30.24,West,265,1.0,11.0,63,0.00,,,0.00,Wunderground v.1.15,2013-04-28 17:06:00,
2013-04-28 13:09:00,56.7,45.1,30.24,SSE,161,1.0,11.0,65,0.00,,,0.00,Wunderground v.1.15,2013-04-28 17:09:00,
2013-04-28 13:11:00,56.4,44.8,30.24,SSE,156,1.0,1.0,65,0.00,,,0.00,Wunderground v.1.15,2013-04-28 17:11:00,
2013-04-28 13:14:00,55.9,45.1,30.24,SW,233,1.0,1.0,67,0.00,,,0.00,Wunderground v.1.15,2013-04-28 17:14:00,
2013-04-28 13:15:00,55.8,44.6,30.24,West,265,0.0,3.0,66,0.00,,,0.00,Wunderground v.1.15,2013-04-28 17:15:00,
2013-04-28 13:17:00,55.4,44.6,30.24,WSW,242,1.0,3.0,67,0.00,,,0.00,Wunderground v.1.15,2013-04-28 17:17:00,
2013-04-28 13:18:00,55.1,44.7,30.24,SW,232,1.0,3.0,68,0.00,,,0.00,Wunderground v.1.15,2013-04-28 17:18:00,
2013-04-28 13:20:00,54.9,45.3,30.24,SW,235,1.0,1.0,70,0.00,,,0.00,Wunderground v.1.15,2013-04-28 17:20:00,
2013-04-28 13:22:00,54.6,44.6,30.24,West,273,1.0,1.0,69,0.00,,,0.00,Wunderground v.1.15,2013-04-28 17:22:00,
2013-04-28 13:24:00,54.4,45.2,30.24,West,277,1.0,1.0,71,0.00,,,0.00,Wunderground v.1.15,2013-04-28 17:24:00,
2013-04-28 13:25:00,54.3,45.1,30.24,West,277,1.0,1.0,71,0.00,,,0.00,Wunderground v.1.15,2013-04-28 17:25:00,
2013-04-28 13:29:00,54.1,45.3,30.23,WSW,250,0.0,4.0,72,0.00,,,0.00,Wunderground v.1.15,2013-04-28 17:29:00,
2013-04-28 13:32:00,53.8,45.3,30.24,West,262,1.0,7.0,73,0.00,,,0.00,Wunderground v.1.15,2013-04-28 17:32:00,
2013-04-28 13:34:00,53.7,45.2,30.24,West,261,1.0,7.0,73,0.00,,,0.00,Wunderground v.1.15,2013-04-28 17:34:00,
2013-04-28 13:35:00,53.6,45.2,30.24,SSW,200,1.0,7.0,73,0.00,,,0.00,Wunderground v.1.15,2013-04-28 17:35:00,
2013-04-28 13:36:00,53.5,45.4,30.23,SSW,200,1.0,7.0,74,0.00,,,0.00,Wunderground v.1.15,2013-04-28 17:36:00,
2013-04-28 13:37:00,53.5,45.4,30.23,WSW,246,0.0,7.0,74,0.00,,,0.00,Wunderground v.1.15,2013-04-28 17:37:00,
2013-04-28 13:40:00,53.2,46.2,30.24,WSW,248,0.0,0.0,77,0.00,,,0.00,Wunderground v.1.15,2013-04-28 17:40:00,
2013-04-28 13:41:00,53.2,45.8,30.24,WSW,248,0.0,0.0,76,0.00,,,0.00,Wunderground v.1.15,2013-04-28 17:41:00,
2013-04-28 13:43:00,53.0,46.0,30.24,West,265,0.0,3.0,77,0.00,,,0.00,Wunderground v.1.15,2013-04-28 17:43:00,
2013-04-28 13:45:00,52.7,45.7,30.23,West,265,0.0,3.0,77,0.00,,,0.00,Wunderground v.1.15,2013-04-28 17:45:00,
2013-04-28 13:46:00,52.6,45.6,30.23,West,264,0.0,3.0,77,0.00,,,0.00,Wunderground v.1.15,2013-04-28 17:46:00,
2013-04-28 13:48:00,52.3,45.6,30.24,WSW,238,0.0,3.0,78,0.00,,,0.01,Wunderground v.1.15,2013-04-28 17:48:00,
2013-04-28 13:50:00,52.1,45.8,30.23,SW,223,0.0,0.0,79,0.00,,,0.01,Wunderground v.1.15,2013-04-28 17:50:00,
2013-04-28 13:51:00,51.9,45.6,30.24,WSW,248,0.0,2.0,79,0.00,,,0.01,Wunderground v.1.15,2013-04-28 17:51:00,
2013-04-28 13:54:00,51.5,45.2,30.24,West,277,0.0,2.0,79,0.00,,,0.01,Wunderground v.1.15,2013-04-28 17:54:00,
2013-04-28 13:57:00,51.2,45.6,30.24,West,277,0.0,2.0,81,0.06,,,0.02,Wunderground v.1.15,2013-04-28 17:57:00,
2013-04-28 13:59:00,51.0,45.4,30.24,West,278,0.0,2.0,81,0.06,,,0.02,Wunderground v.1.15,2013-04-28 17:59:00,
2013-04-28 14:00:00,50.9,45.6,30.24,West,277,0.0,0.0,82,0.06,,,0.02,Wunderground v.1.15,2013-04-28 18:00:00,
2013-04-28 14:03:00,50.6,45.3,30.23,West,273,0.0,8.0,82,0.06,,,0.02,Wunderground v.1.15,2013-04-28 18:03:00,
2013-04-28 14:04:00,50.6,45.3,30.23,West,276,0.0,8.0,82,0.06,,,0.02,Wunderground v.1.15,2013-04-28 18:04:00,
2013-04-28 14:06:00,50.4,45.4,30.24,SW,229,0.0,8.0,83,0.06,,,0.02,Wunderground v.1.15,2013-04-28 18:06:00,
2013-04-28 14:08:00,50.3,45.6,30.24,SW,232,0.0,8.0,84,0.05,,,0.02,Wunderground v.1.15,2013-04-28 18:08:00,
2013-04-28 14:09:00,50.3,45.6,30.24,SW,232,0.0,8.0,84,0.05,,,0.02,Wunderground v.1.15,2013-04-28 18:09:00,
2013-04-28 14:10:00,50.2,45.6,30.24,SW,218,0.0,0.0,84,0.04,,,0.02,Wunderground v.1.15,2013-04-28 18:10:00,
2013-04-28 14:15:00,50.1,46.1,30.24,SW,218,0.0,0.0,86,0.00,,,0.02,Wunderground v.1.15,2013-04-28 18:15:00,
2013-04-28 14:16:00,50.1,46.1,30.23,SW,229,0.0,0.0,86,0.00,,,0.02,Wunderground v.1.15,2013-04-28 18:16:00,
2013-04-28 14:19:00,50.0,46.0,30.23,SW,228,0.0,1.0,86,0.00,,,0.02,Wunderground v.1.15,2013-04-28 18:19:00,
2013-04-28 14:24:00,49.9,45.6,30.23,WSW,257,1.0,2.0,85,0.00,,,0.02,Wunderground v.1.15,2013-04-28 18:24:00,
2013-04-28 14:25:00,49.9,45.6,30.23,WNW,301,1.0,2.0,85,0.00,,,0.03,Wunderground v.1.15,2013-04-28 18:25:00,
2013-04-28 14:26:00,49.8,45.5,30.23,WNW,302,1.0,2.0,85,0.00,,,0.03,Wunderground v.1.15,2013-04-28 18:26:00,
2013-04-28 14:29:00,49.7,45.7,30.23,SSW,196,1.0,2.0,86,0.00,,,0.03,Wunderground v.1.15,2013-04-28 18:29:00,
2013-04-28 14:33:00,49.6,45.6,30.23,South,181,0.0,5.0,86,0.00,,,0.03,Wunderground v.1.15,2013-04-28 18:33:00,
2013-04-28 14:34:00,49.6,45.6,30.23,South,181,0.0,5.0,86,0.00,,,0.03,Wunderground v.1.15,2013-04-28 18:34:00,
2013-04-28 14:35:00,49.6,45.9,30.23,SSW,210,0.0,5.0,87,0.00,,,0.03,Wunderground v.1.15,2013-04-28 18:35:00,
2013-04-28 14:39:00,49.5,45.8,30.23,SSW,196,0.0,5.0,87,0.05,,,0.04,Wunderground v.1.15,2013-04-28 18:39:00,
2013-04-28 14:41:00,49.3,45.6,30.23,SSW,202,0.0,0.0,87,0.05,,,0.04,Wunderground v.1.15,2013-04-28 18:41:00,
2013-04-28 14:43:00,49.2,45.5,30.23,SSW,196,0.0,0.0,87,0.05,,,0.04,Wunderground v.1.15,2013-04-28 18:43:00,
2013-04-28 14:44:00,49.2,45.8,30.23,SSW,196,0.0,0.0,88,0.05,,,0.04,Wunderground v.1.15,2013-04-28 18:44:00,
2013-04-28 14:45:00,49.3,45.9,30.23,SSW,196,0.0,0.0,88,0.05,,,0.04,Wunderground v.1.15,2013-04-28 18:45:00,
2013-04-28 14:48:00,49.2,45.8,30.23,SW,222,0.0,0.0,88,0.05,,,0.04,Wunderground v.1.15,2013-04-28 18:48:00,
2013-04-28 14:49:00,49.2,45.8,30.23,SW,222,0.0,0.0,88,0.05,,,0.04,Wunderground v.1.15,2013-04-28 18:49:00,
2013-04-28 14:50:00,49.2,45.8,30.23,SW,223,0.0,0.0,88,0.05,,,0.04,Wunderground v.1.15,2013-04-28 18:50:00,
2013-04-28 14:54:00,49.1,45.7,30.23,WSW,248,0.0,0.0,88,0.04,,,0.04,Wunderground v.1.15,2013-04-28 18:54:00,
2013-04-28 14:55:00,49.1,46.0,30.23,WSW,237,0.0,0.0,89,0.04,,,0.04,Wunderground v.1.15,2013-04-28 18:55:00,
2013-04-28 14:57:00,49.1,46.0,30.23,South,178,0.0,0.0,89,0.00,,,0.05,Wunderground v.1.15,2013-04-28 18:57:00,
2013-04-28 14:59:00,49.1,46.0,30.23,South,178,0.0,0.0,89,0.00,,,0.05,Wunderground v.1.15,2013-04-28 18:59:00,
2013-04-28 15:00:00,49.0,45.9,30.23,West,275,0.0,0.0,89,0.00,,,0.05,Wunderground v.1.15,2013-04-28 19:00:00,
2013-04-28 15:04:00,49.0,45.9,30.23,SW,235,0.0,6.0,89,0.00,,,0.05,Wunderground v.1.15,2013-04-28 19:04:00,
2013-04-28 15:06:00,48.9,45.8,30.23,SSE,157,0.0,6.0,89,0.06,,,0.06,Wunderground v.1.15,2013-04-28 19:06:00,
2013-04-28 15:09:00,48.8,46.0,30.23,SSW,213,0.0,6.0,90,0.06,,,0.06,Wunderground v.1.15,2013-04-28 19:09:00,
2013-04-28 15:11:00,48.8,46.0,30.22,South,171,1.0,1.0,90,0.06,,,0.06,Wunderground v.1.15,2013-04-28 19:11:00,
2013-04-28 15:12:00,48.8,46.0,30.23,WNW,299,1.0,1.0,90,0.06,,,0.06,Wunderground v.1.15,2013-04-28 19:12:00,
2013-04-28 15:14:00,48.8,46.0,30.22,West,263,0.0,1.0,90,0.06,,,0.06,Wunderground v.1.15,2013-04-28 19:14:00,
2013-04-28 15:16:00,48.7,45.9,30.22,NW,317,1.0,2.0,90,0.05,,,0.06,Wunderground v.1.15,2013-04-28 19:16:00,
2013-04-28 15:17:00,48.7,45.9,30.22,NW,317,0.0,2.0,90,0.05,,,0.06,Wunderground v.1.15,2013-04-28 19:17:00,
2013-04-28 15:20:00,48.8,46.3,30.22,WSW,248,0.0,0.0,91,0.04,,,0.06,Wunderground v.1.15,2013-04-28 19:20:00,
2013-04-28 15:21:00,48.8,46.3,30.22,WNW,285,0.0,0.0,91,0.04,,,0.06,Wunderground v.1.15,2013-04-28 19:21:00,
2013-04-28 15:22:00,48.8,46.3,30.22,WNW,284,0.0,0.0,91,0.00,,,0.06,Wunderground v.1.15,2013-04-28 19:22:00,
2013-04-28 15:24:00,48.8,46.3,30.21,West,269,0.0,0.0,91,0.00,,,0.07,Wunderground v.1.15,2013-04-28 19:24:00,
2013-04-28 15:25:00,48.8,46.3,30.21,West,269,0.0,0.0,91,0.00,,,0.07,Wunderground v.1.15,2013-04-28 19:25:00,
2013-04-28 15:26:00,48.8,46.3,30.21,SE,142,0.0,5.0,91,0.00,,,0.07,Wunderground v.1.15,2013-04-28 19:26:00,
2013-04-28 15:27:00,48.8,46.3,30.21,SE,142,0.0,5.0,91,0.00,,,0.07,Wunderground v.1.15,2013-04-28 19:27:00,
2013-04-28 15:29:00,48.9,46.4,30.21,SW,234,0.0,5.0,91,0.00,,,0.07,Wunderground v.1.15,2013-04-28 19:29:00,
2013-04-28 15:31:00,48.9,46.4,30.21,SE,146,0.0,6.0,91,0.00,,,0.07,Wunderground v.1.15,2013-04-28 19:31:00,
2013-04-28 15:33:00,49.0,46.5,30.21,SSE,147,0.0,6.0,91,0.00,,,0.07,Wunderground v.1.15,2013-04-28 19:33:00,
2013-04-28 15:35:00,49.0,46.2,30.21,SE,128,0.0,6.0,90,0.00,,,0.07,Wunderground v.1.15,2013-04-28 19:35:00,
2013-04-28 15:37:00,49.0,46.2,30.21,South,181,0.0,6.0,90,0.00,,,0.07,Wunderground v.1.15,2013-04-28 19:37:00,
2013-04-28 15:39:00,49.1,46.3,30.20,South,183,0.0,6.0,90,0.00,,,0.07,Wunderground v.1.15,2013-04-28 19:39:00,
2013-04-28 15:40:00,49.1,46.3,30.20,South,181,0.0,0.0,90,0.00,,,0.08,Wunderground v.1.15,2013-04-28 19:40:00,
2013-04-28 15:42:00,49.2,46.4,30.20,South,181,0.0,0.0,90,0.00,,,0.08,Wunderground v.1.15,2013-04-28 19:42:00,
2013-04-28 15:44:00,49.2,46.4,30.20,SSE,163,0.0,0.0,90,0.00,,,0.08,Wunderground v.1.15,2013-04-28 19:44:00,
2013-04-28 15:45:00,49.2,46.4,30.20,SSE,152,0.0,4.0,90,0.00,,,0.08,Wunderground v.1.15,2013-04-28 19:45:00,
2013-04-28 15:46:00,49.2,46.4,30.20,SSE,152,1.0,4.0,90,0.00,,,0.08,Wunderground v.1.15,2013-04-28 19:46:00,
2013-04-28 15:47:00,49.3,46.5,30.20,SSE,152,1.0,4.0,90,0.00,,,0.08,Wunderground v.1.15,2013-04-28 19:47:00,
2013-04-28 15:50:00,49.4,46.6,30.20,SSE,153,1.0,1.0,90,0.00,,,0.08,Wunderground v.1.15,2013-04-28 19:50:00,
2013-04-28 15:51:00,49.4,46.6,30.20,SW,226,1.0,1.0,90,0.00,,,0.08,Wunderground v.1.15,2013-04-28 19:51:00,
2013-04-28 15:52:00,49.4,46.6,30.20,SW,227,1.0,1.0,90,0.00,,,0.08,Wunderground v.1.15,2013-04-28 19:52:00,
2013-04-28 15:54:00,49.4,46.6,30.20,SW,217,0.0,1.0,90,0.00,,,0.08,Wunderground v.1.15,2013-04-28 19:54:00,
2013-04-28 15:55:00,49.5,46.7,30.20,SW,217,0.0,1.0,90,0.00,,,0.08,Wunderground v.1.15,2013-04-28 19:55:00,
2013-04-28 15:56:00,49.5,46.7,30.20,SW,217,0.0,1.0,90,0.00,,,0.08,Wunderground v.1.15,2013-04-28 19:56:00,
2013-04-28 16:00:00,49.6,46.8,30.19,SW,217,0.0,0.0,90,0.00,,,0.08,Wunderground v.1.15,2013-04-28 20:00:00,
2013-04-28 16:01:00,49.6,46.8,30.19,SSE,156,0.0,6.0,90,0.00,,,0.09,Wunderground v.1.15,2013-04-28 20:01:00,
2013-04-28 16:02:00,49.6,46.8,30.19,SSE,157,0.0,6.0,90,0.00,,,0.09,Wunderground v.1.15,2013-04-28 20:02:00,
2013-04-28 16:04:00,49.6,46.8,30.19,SSE,156,0.0,6.0,90,0.00,,,0.09,Wunderground v.1.15,2013-04-28 20:04:00,
2013-04-28 16:05:00,49.6,46.8,30.19,SSW,200,0.0,6.0,90,0.00,,,0.09,Wunderground v.1.15,2013-04-28 20:05:00,
2013-04-28 16:07:00,49.6,46.8,30.19,WSW,247,0.0,6.0,90,0.00,,,0.09,Wunderground v.1.15,2013-04-28 20:07:00,
2013-04-28 16:10:00,49.4,46.6,30.19,WSW,247,0.0,0.0,90,0.00,,,0.09,Wunderground v.1.15,2013-04-28 20:10:00,
2013-04-28 16:13:00,49.4,46.9,30.19,SE,136,1.0,1.0,91,0.00,,,0.09,Wunderground v.1.15,2013-04-28 20:13:00,
2013-04-28 16:15:00,49.4,46.9,30.19,WSW,257,1.0,3.0,91,0.00,,,0.09,Wunderground v.1.15,2013-04-28 20:15:00,
2013-04-28 16:16:00,49.3,46.8,30.19,South,187,1.0,3.0,91,0.00,,,0.09,Wunderground v.1.15,2013-04-28 20:16:00,
2013-04-28 16:17:00,49.3,46.8,30.19,South,187,1.0,3.0,91,0.00,,,0.09,Wunderground v.1.15,2013-04-28 20:17:00,
2013-04-28 16:19:00,49.3,46.8,30.19,South,187,1.0,3.0,91,0.00,,,0.09,Wunderground v.1.15,2013-04-28 20:19:00,
2013-04-28 16:21:00,49.3,46.8,30.19,South,187,1.0,1.0,91,0.00,,,0.09,Wunderground v.1.15,2013-04-28 20:21:00,
2013-04-28 16:24:00,49.4,46.9,30.19,South,187,0.0,1.0,91,0.00,,,0.09,Wunderground v.1.15,2013-04-28 20:24:00,
2013-04-28 16:26:00,49.6,47.1,30.19,South,187,0.0,1.0,91,0.00,,,0.09,Wunderground v.1.15,2013-04-28 20:26:00,
2013-04-28 16:27:00,49.6,46.8,30.19,South,187,0.0,1.0,90,0.00,,,0.09,Wunderground v.1.15,2013-04-28 20:27:00,
2013-04-28 16:31:00,49.8,47.0,30.18,SSW,204,0.0,1.0,90,0.00,,,0.09,Wunderground v.1.15,2013-04-28 20:31:00,
2013-04-28 16:32:00,49.8,47.0,30.18,SSW,204,0.0,4.0,90,0.00,,,0.09,Wunderground v.1.15,2013-04-28 20:32:00,
2013-04-28 16:33:00,49.9,46.8,30.18,SSW,203,0.0,4.0,89,0.00,,,0.09,Wunderground v.1.15,2013-04-28 20:33:00,
2013-04-28 16:35:00,50.1,47.0,30.18,SE,141,0.0,7.0,89,0.00,,,0.09,Wunderground v.1.15,2013-04-28 20:35:00,
2013-04-28 16:37:00,50.2,46.8,30.18,SSE,158,0.0,7.0,88,0.00,,,0.09,Wunderground v.1.15,2013-04-28 20:37:00,
2013-04-28 16:39:00,50.3,46.9,30.18,SSE,168,0.0,7.0,88,0.00,,,0.09,Wunderground v.1.15,2013-04-28 20:39:00,
2013-04-28 16:40:00,50.4,46.7,30.18,SSW,213,0.0,0.0,87,0.00,,,0.09,Wunderground v.1.15,2013-04-28 20:40:00,
2013-04-28 16:42:00,50.5,46.5,30.18,SSE,158,1.0,4.0,86,0.00,,,0.09,Wunderground v.1.15,2013-04-28 20:42:00,
2013-04-28 16:44:00,50.6,46.6,30.18,SSE,157,1.0,4.0,86,0.00,,,0.09,Wunderground v.1.15,2013-04-28 20:44:00,
2013-04-28 16:46:00,50.6,46.3,30.17,SSE,157,0.0,4.0,85,0.00,,,0.09,Wunderground v.1.15,2013-04-28 20:46:00,
2013-04-28 16:47:00,50.7,46.4,30.18,SSE,158,0.0,4.0,85,0.00,,,0.09,Wunderground v.1.15,2013-04-28 20:47:00,
2013-04-28 16:49:00,50.8,46.5,30.17,SE,130,0.0,4.0,85,0.00,,,0.09,Wunderground v.1.15,2013-04-28 20:49:00,
2013-04-28 16:51:00,51.0,46.6,30.17,SE,130,0.0,0.0,85,0.00,,,0.09,Wunderground v.1.15,2013-04-28 20:51:00,
2013-04-28 16:54:00,51.0,46.0,30.17,ESE,123,1.0,4.0,83,0.00,,,0.09,Wunderground v.1.15,2013-04-28 20:54:00,
2013-04-28 16:55:00,51.1,45.8,30.18,SE,140,1.0,4.0,82,0.00,,,0.09,Wunderground v.1.15,2013-04-28 20:55:00,
2013-04-28 16:59:00,51.3,46.0,30.18,SE,141,1.0,4.0,82,0.00,,,0.09,Wunderground v.1.15,2013-04-28 20:59:00,
2013-04-28 17:00:00,51.3,46.3,30.18,SE,128,1.0,1.0,83,0.00,,,0.09,Wunderground v.1.15,2013-04-28 21:00:00,
2013-04-28 17:04:00,51.3,46.0,30.18,WSW,238,1.0,7.0,82,0.00,,,0.09,Wunderground v.1.15,2013-04-28 21:04:00,
2013-04-28 17:05:00,51.3,46.0,30.18,WSW,237,0.0,7.0,82,0.00,,,0.09,Wunderground v.1.15,2013-04-28 21:05:00,
2013-04-28 17:07:00,51.2,45.9,30.18,WSW,238,0.0,7.0,82,0.00,,,0.09,Wunderground v.1.15,2013-04-28 21:07:00,
2013-04-28 17:10:00,51.2,45.9,30.18,SSE,150,0.0,1.0,82,0.00,,,0.09,Wunderground v.1.15,2013-04-28 21:10:00,
2013-04-28 17:13:00,51.1,46.1,30.18,SSE,151,0.0,1.0,83,0.00,,,0.09,Wunderground v.1.15,2013-04-28 21:13:00,
2013-04-28 17:14:00,51.1,46.1,30.18,SSE,151,0.0,1.0,83,0.00,,,0.09,Wunderground v.1.15,2013-04-28 21:14:00,
2013-04-28 17:15:00,51.0,45.7,30.18,SSE,152,0.0,1.0,82,0.00,,,0.09,Wunderground v.1.15,2013-04-28 21:15:00,
2013-04-28 17:16:00,51.0,46.0,30.18,SSE,152,0.0,1.0,83,0.00,,,0.09,Wunderground v.1.15,2013-04-28 21:16:00,
2013-04-28 17:19:00,50.8,45.5,30.18,SSE,148,0.0,2.0,82,0.00,,,0.09,Wunderground v.1.15,2013-04-28 21:19:00,
2013-04-28 17:20:00,50.8,45.5,30.18,SSE,148,0.0,0.0,82,0.00,,,0.09,Wunderground v.1.15,2013-04-28 21:20:00,
2013-04-28 17:24:00,50.6,45.3,30.18,SSW,192,0.0,0.0,82,0.00,,,0.09,Wunderground v.1.15,2013-04-28 21:24:00,
2013-04-28 17:25:00,50.5,45.2,30.18,ESE,112,0.0,6.0,82,0.00,,,0.09,Wunderground v.1.15,2013-04-28 21:25:00,
2013-04-28 17:26:00,50.5,45.2,30.18,ESE,107,1.0,6.0,82,0.00,,,0.09,Wunderground v.1.15,2013-04-28 21:26:00,
2013-04-28 17:30:00,50.4,45.1,30.18,West,268,0.0,1.0,82,0.00,,,0.09,Wunderground v.1.15,2013-04-28 21:30:00,
2013-04-28 17:31:00,50.4,44.8,30.18,South,169,0.0,8.0,81,0.00,,,0.09,Wunderground v.1.15,2013-04-28 21:31:00,
2013-04-28 17:34:00,50.4,44.8,30.18,WSW,238,0.0,8.0,81,0.00,,,0.09,Wunderground v.1.15,2013-04-28 21:34:00,
2013-04-28 17:35:00,50.4,44.8,30.18,WSW,239,0.0,8.0,81,0.00,,,0.09,Wunderground v.1.15,2013-04-28 21:35:00,
2013-04-28 17:37:00,50.4,44.8,30.18,SW,233,0.0,8.0,81,0.00,,,0.09,Wunderground v.1.15,2013-04-28 21:37:00,
2013-04-28 17:40:00,50.4,44.8,30.17,ESE,117,0.0,0.0,81,0.00,,,0.09,Wunderground v.1.15,2013-04-28 21:40:00,
2013-04-28 17:42:00,50.4,45.1,30.17,ESE,119,0.0,0.0,82,0.00,,,0.09,Wunderground v.1.15,2013-04-28 21:42:00,
2013-04-28 17:43:00,50.4,44.8,30.17,ESE,119,0.0,0.0,81,0.00,,,0.09,Wunderground v.1.15,2013-04-28 21:43:00,
2013-04-28 17:45:00,50.5,44.9,30.17,ESE,117,0.0,2.0,81,0.00,,,0.09,Wunderground v.1.15,2013-04-28 21:45:00,
2013-04-28 17:46:00,50.5,44.9,30.17,ESE,115,1.0,2.0,81,0.00,,,0.09,Wunderground v.1.15,2013-04-28 21:46:00,
2013-04-28 17:49:00,50.5,44.9,30.17,SSE,160,1.0,2.0,81,0.00,,,0.09,Wunderground v.1.15,2013-04-28 21:49:00,
2013-04-28 17:50:00,50.5,44.9,30.17,SSE,160,1.0,1.0,81,0.00,,,0.09,Wunderground v.1.15,2013-04-28 21:50:00,
2013-04-28 17:52:00,50.5,45.2,30.17,SSE,160,1.0,1.0,82,0.00,,,0.09,Wunderground v.1.15,2013-04-28 21:52:00,
2013-04-28 17:53:00,50.5,45.2,30.17,SSE,160,1.0,1.0,82,0.00,,,0.09,Wunderground v.1.15,2013-04-28 21:53:00,
2013-04-28 17:56:00,50.4,45.1,30.17,SE,146,1.0,1.0,82,0.00,,,0.09,Wunderground v.1.15,2013-04-28 21:56:00,
2013-04-28 17:57:00,50.4,44.8,30.16,ESE,111,1.0,2.0,81,0.00,,,0.09,Wunderground v.1.15,2013-04-28 21:57:00,
2013-04-28 17:59:00,50.4,44.8,30.16,ESE,109,1.0,2.0,81,0.00,,,0.09,Wunderground v.1.15,2013-04-28 21:59:00,
2013-04-28 18:01:00,50.3,44.7,30.16,SE,134,1.0,4.0,81,0.00,,,0.09,Wunderground v.1.15,2013-04-28 22:01:00,
2013-04-28 18:04:00,50.3,44.7,30.16,SE,125,1.0,13.0,81,0.00,,,0.09,Wunderground v.1.15,2013-04-28 22:04:00,
2013-04-28 18:06:00,50.3,44.7,30.16,SE,125,1.0,13.0,81,0.00,,,0.09,Wunderground v.1.15,2013-04-28 22:06:00,
2013-04-28 18:07:00,50.3,44.7,30.16,ESE,110,1.0,13.0,81,0.00,,,0.09,Wunderground v.1.15,2013-04-28 22:07:00,
2013-04-28 18:10:00,50.4,45.1,30.16,ESE,110,0.0,0.0,82,0.00,,,0.09,Wunderground v.1.15,2013-04-28 22:10:00,
2013-04-28 18:11:00,50.4,45.1,30.15,ESE,110,0.0,0.0,82,0.00,,,0.09,Wunderground v.1.15,2013-04-28 22:11:00,
2013-04-28 18:12:00,50.3,45.0,30.15,ESE,110,0.0,0.0,82,0.00,,,0.09,Wunderground v.1.15,2013-04-28 22:12:00,
2013-04-28 18:14:00,50.3,45.0,30.15,ESE,108,0.0,0.0,82,0.00,,,0.09,Wunderground v.1.15,2013-04-28 22:14:00,
2013-04-28 18:17:00,50.3,44.7,30.15,SE,138,1.0,4.0,81,0.00,,,0.09,Wunderground v.1.15,2013-04-28 22:17:00,
2013-04-28 18:18:00,50.3,44.7,30.15,SE,138,1.0,4.0,81,0.00,,,0.09,Wunderground v.1.15,2013-04-28 22:18:00,
2013-04-28 18:21:00,50.3,45.0,30.15,SE,145,1.0,5.0,82,0.00,,,0.09,Wunderground v.1.15,2013-04-28 22:21:00,
2013-04-28 18:22:00,50.3,45.0,30.15,SE,145,1.0,5.0,82,0.00,,,0.09,Wunderground v.1.15,2013-04-28 22:22:00,
2013-04-28 18:24:00,50.2,44.9,30.14,ESE,118,1.0,5.0,82,0.00,,,0.09,Wunderground v.1.15,2013-04-28 22:24:00,
2013-04-28 18:25:00,50.2,44.9,30.14,SE,125,1.0,6.0,82,0.00,,,0.09,Wunderground v.1.15,2013-04-28 22:25:00,
2013-04-28 18:26:00,50.2,44.9,30.14,SE,125,1.0,6.0,82,0.00,,,0.09,Wunderground v.1.15,2013-04-28 22:26:00,
2013-04-28 18:29:00,50.2,44.9,30.14,SSE,159,1.0,6.0,82,0.00,,,0.09,Wunderground v.1.15,2013-04-28 22:29:00,
2013-04-28 18:30:00,50.2,44.9,30.14,East,92,1.0,1.0,82,0.00,,,0.09,Wunderground v.1.15,2013-04-28 22:30:00,
2013-04-28 18:34:00,50.3,45.0,30.14,East,92,1.0,6.0,82,0.00,,,0.09,Wunderground v.1.15,2013-04-28 22:34:00,
2013-04-28 18:35:00,50.3,45.0,30.14,ESE,111,1.0,6.0,82,0.00,,,0.09,Wunderground v.1.15,2013-04-28 22:35:00,
2013-04-28 18:36:00,50.3,45.0,30.14,East,101,0.0,6.0,82,0.00,,,0.09,Wunderground v.1.15,2013-04-28 22:36:00,
2013-04-28 18:39:00,50.3,45.0,30.14,East,98,1.0,6.0,82,0.00,,,0.09,Wunderground v.1.15,2013-04-28 22:39:00,
2013-04-28 18:40:00,50.3,45.0,30.14,ESE,117,1.0,1.0,82,0.00,,,0.09,Wunderground v.1.15,2013-04-28 22:40:00,
2013-04-28 18:43:00,50.3,45.0,30.14,SE,128,1.0,1.0,82,0.00,,,0.09,Wunderground v.1.15,2013-04-28 22:43:00,
2013-04-28 18:44:00,50.3,45.0,30.14,SE,129,1.0,1.0,82,0.00,,,0.09,Wunderground v.1.15,2013-04-28 22:44:00,
2013-04-28 18:46:00,50.3,45.0,30.14,ESE,117,1.0,1.0,82,0.00,,,0.09,Wunderground v.1.15,2013-04-28 22:46:00,
2013-04-28 18:48:00,50.3,45.0,30.14,ENE,77,1.0,3.0,82,0.00,,,0.09,Wunderground v.1.15,2013-04-28 22:48:00,
2013-04-28 18:51:00,50.3,45.3,30.13,East,85,0.0,4.0,83,0.00,,,0.09,Wunderground v.1.15,2013-04-28 22:51:00,
2013-04-28 18:54:00,50.3,45.3,30.13,East,84,1.0,4.0,83,0.00,,,0.09,Wunderground v.1.15,2013-04-28 22:54:00,
2013-04-28 18:56:00,50.3,45.3,30.13,ESE,105,1.0,4.0,83,0.00,,,0.09,Wunderground v.1.15,2013-04-28 22:56:00,
2013-04-28 19:00:00,50.3,45.3,30.13,ESE,105,1.0,1.0,83,0.00,,,0.09,Wunderground v.1.15,2013-04-28 23:00:00,
2013-04-28 19:01:00,50.3,45.3,30.13,ESE,105,1.0,7.0,83,0.00,,,0.09,Wunderground v.1.15,2013-04-28 23:01:00,
2013-04-28 19:02:00,50.3,45.6,30.14,ESE,105,0.0,7.0,84,0.00,,,0.09,Wunderground v.1.15,2013-04-28 23:02:00,
2013-04-28 19:03:00,50.3,45.3,30.14,ESE,105,1.0,7.0,83,0.00,,,0.09,Wunderground v.1.15,2013-04-28 23:03:00,
2013-04-28 19:04:00,50.3,45.3,30.14,ESE,106,1.0,7.0,83,0.00,,,0.09,Wunderground v.1.15,2013-04-28 23:04:00,
2013-04-28 19:06:00,50.3,45.3,30.14,ESE,107,1.0,7.0,83,0.00,,,0.09,Wunderground v.1.15,2013-04-28 23:06:00,
2013-04-28 19:09:00,50.3,45.3,30.13,ESE,104,1.0,7.0,83,0.00,,,0.09,Wunderground v.1.15,2013-04-28 23:09:00,
2013-04-28 19:10:00,50.3,45.3,30.13,East,97,1.0,2.0,83,0.00,,,0.09,Wunderground v.1.15,2013-04-28 23:10:00,
2013-04-28 19:15:00,50.2,45.6,30.14,East,101,1.0,2.0,84,0.00,,,0.09,Wunderground v.1.15,2013-04-28 23:15:00,
2013-04-28 19:16:00,50.3,45.6,30.14,East,101,1.0,2.0,84,0.00,,,0.09,Wunderground v.1.15,2013-04-28 23:16:00,
2013-04-28 19:18:00,50.2,45.6,30.14,ESE,102,0.0,2.0,84,0.00,,,0.09,Wunderground v.1.15,2013-04-28 23:18:00,
2013-04-28 19:20:00,50.2,45.6,30.14,ESE,109,0.0,4.0,84,0.00,,,0.09,Wunderground v.1.15,2013-04-28 23:20:00,
2013-04-28 19:22:00,50.2,45.6,30.14,ESE,109,0.0,4.0,84,0.00,,,0.09,Wunderground v.1.15,2013-04-28 23:22:00,
2013-04-28 19:25:00,50.2,45.6,30.14,SSE,149,0.0,4.0,84,0.00,,,0.09,Wunderground v.1.15,2013-04-28 23:25:00,
2013-04-28 19:26:00,50.2,45.6,30.14,SE,143,0.0,4.0,84,0.00,,,0.09,Wunderground v.1.15,2013-04-28 23:26:00,
2013-04-28 19:29:00,50.2,45.2,30.13,ESE,105,1.0,4.0,83,0.00,,,0.09,Wunderground v.1.15,2013-04-28 23:29:00,
2013-04-28 19:30:00,50.2,45.6,30.13,ESE,105,1.0,1.0,84,0.00,,,0.09,Wunderground v.1.15,2013-04-28 23:30:00,
2013-04-28 19:32:00,50.2,45.2,30.14,SE,129,1.0,8.0,83,0.00,,,0.09,Wunderground v.1.15,2013-04-28 23:32:00,
2013-04-28 19:36:00,50.3,45.3,30.14,ESE,119,1.0,8.0,83,0.00,,,0.09,Wunderground v.1.15,2013-04-28 23:36:00,
2013-04-28 19:37:00,50.3,45.3,30.13,SE,132,1.0,8.0,83,0.00,,,0.09,Wunderground v.1.15,2013-04-28 23:37:00,
2013-04-28 19:40:00,50.3,45.3,30.14,ESE,106,1.0,2.0,83,0.00,,,0.09,Wunderground v.1.15,2013-04-28 23:40:00,
2013-04-28 19:43:00,50.3,45.3,30.14,ESE,117,1.0,4.0,83,0.00,,,0.09,Wunderground v.1.15,2013-04-28 23:43:00,
2013-04-28 19:44:00,50.3,45.3,30.14,East,96,1.0,4.0,83,0.00,,,0.09,Wunderground v.1.15,2013-04-28 23:44:00,
2013-04-28 19:46:00,50.3,45.3,30.14,East,96,1.0,4.0,83,0.00,,,0.09,Wunderground v.1.15,2013-04-28 23:46:00,
2013-04-28 19:48:00,50.3,45.3,30.14,East,96,1.0,4.0,83,0.00,,,0.09,Wunderground v.1.15,2013-04-28 23:48:00,
2013-04-28 19:49:00,50.3,45.6,30.14,East,88,1.0,4.0,84,0.00,,,0.09,Wunderground v.1.15,2013-04-28 23:49:00,
2013-04-28 19:50:00,50.2,45.2,30.14,East,96,1.0,1.0,83,0.00,,,0.09,Wunderground v.1.15,2013-04-28 23:50:00,
2013-04-28 19:52:00,50.2,45.2,30.14,ESE,103,1.0,1.0,83,0.00,,,0.09,Wunderground v.1.15,2013-04-28 23:52:00,
2013-04-28 19:54:00,50.2,45.2,30.14,East,98,1.0,1.0,83,0.00,,,0.09,Wunderground v.1.15,2013-04-28 23:54:00,
2013-04-28 19:56:00,50.3,45.3,30.14,East,101,1.0,1.0,83,0.00,,,0.09,Wunderground v.1.15,2013-04-28 23:56:00,
2013-04-28 19:57:00,50.3,45.3,30.14,East,101,1.0,1.0,83,0.00,,,0.09,Wunderground v.1.15,2013-04-28 23:57:00,
2013-04-28 19:59:00,50.2,45.2,30.14,East,91,1.0,1.0,83,0.00,,,0.09,Wunderground v.1.15,2013-04-28 23:59:00,
2013-04-28 20:00:00,50.2,45.2,30.14,East,99,1.0,1.0,83,0.00,,,0.09,Wunderground v.1.15,2013-04-29 00:00:00,
2013-04-28 20:04:00,50.3,45.3,30.14,ESE,103,0.0,6.0,83,0.00,,,0.09,Wunderground v.1.15,2013-04-29 00:04:00,
2013-04-28 20:06:00,50.3,45.6,30.14,ESE,103,0.0,6.0,84,0.00,,,0.09,Wunderground v.1.15,2013-04-29 00:06:00,
2013-04-28 20:07:00,50.3,45.3,30.14,ESE,104,0.0,6.0,83,0.00,,,0.09,Wunderground v.1.15,2013-04-29 00:07:00,
2013-04-28 20:09:00,50.3,45.3,30.14,East,101,1.0,6.0,83,0.00,,,0.09,Wunderground v.1.15,2013-04-29 00:09:00,
2013-04-28 20:12:00,50.4,45.4,30.14,East,99,1.0,1.0,83,0.00,,,0.09,Wunderground v.1.15,2013-04-29 00:12:00,
2013-04-28 20:13:00,50.4,45.4,30.14,East,99,1.0,1.0,83,0.00,,,0.09,Wunderground v.1.15,2013-04-29 00:13:00,
2013-04-28 20:15:00,50.4,45.4,30.14,ESE,115,1.0,1.0,83,0.00,,,0.09,Wunderground v.1.15,2013-04-29 00:15:00,
2013-04-28 20:17:00,50.3,45.3,30.14,SSE,164,1.0,5.0,83,0.00,,,0.09,Wunderground v.1.15,2013-04-29 00:17:00,
2013-04-28 20:20:00,50.4,45.1,30.14,East,90,1.0,1.0,82,0.00,,,0.09,Wunderground v.1.15,2013-04-29 00:20:00,
2013-04-28 20:21:00,50.4,45.1,30.14,East,101,1.0,1.0,82,0.00,,,0.09,Wunderground v.1.15,2013-04-29 00:21:00,
2013-04-28 20:22:00,50.4,45.1,30.14,ESE,102,1.0,1.0,82,0.00,,,0.09,Wunderground v.1.15,2013-04-29 00:22:00,
2013-04-28 20:23:00,50.5,45.2,30.14,ESE,102,1.0,1.0,82,0.00,,,0.09,Wunderground v.1.15,2013-04-29 00:23:00,
2013-04-28 20:27:00,50.5,45.2,30.14,East,95,1.0,2.0,82,0.00,,,0.09,Wunderground v.1.15,2013-04-29 00:27:00,
2013-04-28 20:28:00,50.6,45.0,30.14,ESE,105,1.0,2.0,81,0.00,,,0.09,Wunderground v.1.15,2013-04-29 00:28:00,
2013-04-28 20:29:00,50.6,45.0,30.15,ESE,105,1.0,2.0,81,0.00,,,0.09,Wunderground v.1.15,2013-04-29 00:29:00,
2013-04-28 20:30:00,50.6,45.0,30.15,ESE,105,1.0,1.0,81,0.00,,,0.09,Wunderground v.1.15,2013-04-29 00:30:00,
2013-04-28 20:34:00,50.6,45.3,30.14,ESE,109,0.0,8.0,82,0.00,,,0.09,Wunderground v.1.15,2013-04-29 00:34:00,
2013-04-28 20:35:00,50.6,45.0,30.14,ESE,115,1.0,8.0,81,0.00,,,0.09,Wunderground v.1.15,2013-04-29 00:35:00,
2013-04-28 20:36:00,50.6,45.3,30.14,SE,125,1.0,8.0,82,0.00,,,0.09,Wunderground v.1.15,2013-04-29 00:36:00,
2013-04-28 20:39:00,50.6,45.0,30.15,East,101,1.0,8.0,81,0.00,,,0.09,Wunderground v.1.15,2013-04-29 00:39:00,
2013-04-28 20:40:00,50.6,45.3,30.15,East,101,1.0,1.0,82,0.00,,,0.09,Wunderground v.1.15,2013-04-29 00:40:00,
2013-04-28 20:41:00,50.6,45.3,30.15,ESE,116,1.0,1.0,82,0.00,,,0.09,Wunderground v.1.15,2013-04-29 00:41:00,
2013-04-28 20:46:00,50.6,45.3,30.15,East,98,1.0,1.0,82,0.00,,,0.09,Wunderground v.1.15,2013-04-29 00:46:00,
2013-04-28 20:47:00,50.6,45.3,30.15,East,99,1.0,1.0,82,0.00,,,0.09,Wunderground v.1.15,2013-04-29 00:47:00,
2013-04-28 20:49:00,50.6,45.3,30.15,East,99,1.0,4.0,82,0.00,,,0.09,Wunderground v.1.15,2013-04-29 00:49:00,
2013-04-28 20:52:00,50.6,45.3,30.15,ESE,120,1.0,1.0,82,0.00,,,0.09,Wunderground v.1.15,2013-04-29 00:52:00,
2013-04-28 20:53:00,50.5,45.2,30.15,SE,126,1.0,4.0,82,0.00,,,0.09,Wunderground v.1.15,2013-04-29 00:53:00,
2013-04-28 20:54:00,50.5,45.2,30.15,SE,128,1.0,4.0,82,0.00,,,0.09,Wunderground v.1.15,2013-04-29 00:54:00,
2013-04-28 20:57:00,50.5,45.2,30.16,ESE,123,1.0,4.0,82,0.00,,,0.09,Wunderground v.1.15,2013-04-29 00:57:00,
2013-04-28 20:58:00,50.5,45.2,30.15,ESE,121,1.0,4.0,82,0.00,,,0.09,Wunderground v.1.15,2013-04-29 00:58:00,
2013-04-28 21:01:00,50.5,45.2,30.15,ESE,121,0.0,8.0,82,0.00,,,0.09,Wunderground v.1.15,2013-04-29 01:01:00,
2013-04-28 21:02:00,50.5,45.2,30.16,ESE,121,0.0,8.0,82,0.00,,,0.09,Wunderground v.1.15,2013-04-29 01:02:00,
2013-04-28 21:04:00,50.5,45.2,30.15,SE,126,0.0,8.0,82,0.00,,,0.09,Wunderground v.1.15,2013-04-29 01:04:00,
2013-04-28 21:07:00,50.6,45.3,30.16,ESE,103,0.0,8.0,82,0.00,,,0.09,Wunderground v.1.15,2013-04-29 01:07:00,
2013-04-28 21:08:00,50.6,45.3,30.16,ESE,103,0.0,8.0,82,0.00,,,0.09,Wunderground v.1.15,2013-04-29 01:08:00,
2013-04-28 21:10:00,50.6,45.3,30.16,East,98,1.0,1.0,82,0.00,,,0.09,Wunderground v.1.15,2013-04-29 01:10:00,
2013-04-28 21:11:00,50.6,45.3,30.16,East,98,1.0,1.0,82,0.00,,,0.09,Wunderground v.1.15,2013-04-29 01:11:00,
2013-04-28 21:14:00,50.6,45.3,30.16,East,98,1.0,1.0,82,0.00,,,0.09,Wunderground v.1.15,2013-04-29 01:14:00,
2013-04-28 21:16:00,50.6,45.6,30.16,East,98,0.0,1.0,83,0.00,,,0.09,Wunderground v.1.15,2013-04-29 01:16:00,
2013-04-28 21:19:00,50.5,45.2,30.15,ESE,117,1.0,4.0,82,0.00,,,0.09,Wunderground v.1.15,2013-04-29 01:19:00,
2013-04-28 21:20:00,50.5,45.2,30.15,ESE,117,0.0,0.0,82,0.00,,,0.09,Wunderground v.1.15,2013-04-29 01:20:00,
2013-04-28 21:21:00,50.5,45.2,30.15,ESE,117,0.0,1.0,82,0.00,,,0.09,Wunderground v.1.15,2013-04-29 01:21:00,
2013-04-28 21:24:00,50.5,45.2,30.15,East,98,1.0,1.0,82,0.00,,,0.09,Wunderground v.1.15,2013-04-29 01:24:00,
2013-04-28 21:26:00,50.5,45.2,30.15,ESE,103,1.0,2.0,82,0.00,,,0.09,Wunderground v.1.15,2013-04-29 01:26:00,
2013-04-28 21:29:00,50.4,45.1,30.15,East,96,1.0,2.0,82,0.00,,,0.09,Wunderground v.1.15,2013-04-29 01:29:00,
2013-04-28 21:31:00,50.4,45.4,30.15,East,96,1.0,6.0,83,0.00,,,0.09,Wunderground v.1.15,2013-04-29 01:31:00,
2013-04-28 21:34:00,50.4,45.1,30.15,ESE,122,1.0,6.0,82,0.00,,,0.09,Wunderground v.1.15,2013-04-29 01:34:00,
2013-04-28 21:37:00,50.5,44.9,30.15,ESE,119,1.0,6.0,81,0.00,,,0.09,Wunderground v.1.15,2013-04-29 01:37:00,
2013-04-28 21:38:00,50.5,44.9,30.15,ESE,122,1.0,6.0,81,0.00,,,0.09,Wunderground v.1.15,2013-04-29 01:38:00,
2013-04-28 21:39:00,50.5,44.9,30.15,SE,132,1.0,6.0,81,0.00,,,0.09,Wunderground v.1.15,2013-04-29 01:39:00,
2013-04-28 21:44:00,50.6,44.7,30.15,ESE,114,2.0,2.0,80,0.00,,,0.09,Wunderground v.1.15,2013-04-29 01:44:00,
2013-04-28 21:46:00,50.6,44.7,30.15,East,95,1.0,2.0,80,0.00,,,0.09,Wunderground v.1.15,2013-04-29 01:46:00,
2013-04-28 21:50:00,50.7,44.4,30.15,SSE,164,2.0,2.0,79,0.00,,,0.09,Wunderground v.1.15,2013-04-29 01:50:00,
2013-04-28 21:52:00,50.7,44.8,30.16,ESE,112,2.0,2.0,80,0.00,,,0.09,Wunderground v.1.15,2013-04-29 01:52:00,
2013-04-28 21:53:00,50.7,44.8,30.16,SE,129,2.0,4.0,80,0.00,,,0.09,Wunderground v.1.15,2013-04-29 01:53:00,
2013-04-28 21:56:00,50.6,44.3,30.16,ESE,120,2.0,6.0,79,0.00,,,0.09,Wunderground v.1.15,2013-04-29 01:56:00,
2013-04-28 21:59:00,50.7,44.8,30.15,SE,128,2.0,8.0,80,0.00,,,0.09,Wunderground v.1.15,2013-04-29 01:59:00,
2013-04-28 22:01:00,50.7,44.8,30.15,SE,146,2.0,8.0,80,0.00,,,0.09,Wunderground v.1.15,2013-04-29 02:01:00,
2013-04-28 22:05:00,50.7,44.8,30.15,SE,131,3.0,8.0,80,0.00,,,0.09,Wunderground v.1.15,2013-04-29 02:05:00,
2013-04-28 22:07:00,50.7,44.8,30.15,ESE,113,3.0,8.0,80,0.00,,,0.09,Wunderground v.1.15,2013-04-29 02:07:00,
2013-04-28 22:09:00,50.7,44.8,30.15,SE,125,3.0,8.0,80,0.00,,,0.09,Wunderground v.1.15,2013-04-29 02:09:00,
2013-04-28 22:12:00,50.7,44.8,30.16,ESE,105,2.0,3.0,80,0.00,,,0.09,Wunderground v.1.15,2013-04-29 02:12:00,
2013-04-28 22:14:00,50.6,45.0,30.16,ESE,105,2.0,3.0,81,0.00,,,0.09,Wunderground v.1.15,2013-04-29 02:14:00,
2013-04-28 22:16:00,50.6,44.7,30.16,ESE,118,1.0,3.0,80,0.00,,,0.09,Wunderground v.1.15,2013-04-29 02:16:00,
2013-04-28 22:18:00,50.5,44.9,30.16,ESE,113,0.0,3.0,81,0.00,,,0.09,Wunderground v.1.15,2013-04-29 02:18:00,
2013-04-28 22:21:00,50.5,44.9,30.16,ESE,120,0.0,0.0,81,0.00,,,0.09,Wunderground v.1.15,2013-04-29 02:21:00,
2013-04-28 22:23:00,50.5,44.9,30.16,ESE,117,1.0,7.0,81,0.00,,,0.09,Wunderground v.1.15,2013-04-29 02:23:00,
2013-04-28 22:24:00,50.5,44.9,30.16,East,96,1.0,7.0,81,0.00,,,0.09,Wunderground v.1.15,2013-04-29 02:24:00,
2013-04-28 22:27:00,50.6,44.7,30.16,SSE,148,1.0,7.0,80,0.00,,,0.09,Wunderground v.1.15,2013-04-29 02:27:00,
2013-04-28 22:29:00,50.6,44.7,30.15,ESE,110,1.0,7.0,80,0.00,,,0.09,Wunderground v.1.15,2013-04-29 02:29:00,
2013-04-28 22:30:00,50.6,44.7,30.15,ESE,110,1.0,1.0,80,0.00,,,0.09,Wunderground v.1.15,2013-04-29 02:30:00,
2013-04-28 22:33:00,50.5,44.9,30.15,ESE,121,1.0,9.0,81,0.00,,,0.09,Wunderground v.1.15,2013-04-29 02:33:00,
2013-04-28 22:34:00,50.5,44.9,30.15,ESE,121,1.0,9.0,81,0.00,,,0.09,Wunderground v.1.15,2013-04-29 02:34:00,
2013-04-28 22:39:00,50.5,44.6,30.15,ESE,108,2.0,9.0,80,0.00,,,0.09,Wunderground v.1.15,2013-04-29 02:39:00,
2013-04-28 22:40:00,50.5,44.6,30.15,SE,140,2.0,2.0,80,0.00,,,0.09,Wunderground v.1.15,2013-04-29 02:40:00,
2013-04-28 22:44:00,50.4,44.5,30.15,SE,126,3.0,5.0,80,0.00,,,0.09,Wunderground v.1.15,2013-04-29 02:44:00,
2013-04-28 22:45:00,50.4,44.1,30.15,SSE,150,3.0,5.0,79,0.00,,,0.09,Wunderground v.1.15,2013-04-29 02:45:00,
2013-04-28 22:47:00,50.4,44.5,30.15,East,81,3.0,5.0,80,0.00,,,0.09,Wunderground v.1.15,2013-04-29 02:47:00,
2013-04-28 22:48:00,50.4,44.5,30.14,East,97,3.0,5.0,80,0.00,,,0.09,Wunderground v.1.15,2013-04-29 02:48:00,
2013-04-28 22:51:00,50.3,44.4,30.14,SE,132,3.0,3.0,80,0.00,,,0.09,Wunderground v.1.15,2013-04-29 02:51:00,
2013-04-28 22:54:00,50.3,44.4,30.15,SE,125,3.0,4.0,80,0.00,,,0.09,Wunderground v.1.15,2013-04-29 02:54:00,
2013-04-28 22:56:00,50.3,44.4,30.15,ESE,113,2.0,4.0,80,0.00,,,0.09,Wunderground v.1.15,2013-04-29 02:56:00,
2013-04-28 22:57:00,50.3,44.4,30.15,ESE,103,2.0,4.0,80,0.00,,,0.09,Wunderground v.1.15,2013-04-29 02:57:00,
2013-04-28 22:59:00,50.3,44.7,30.15,SE,144,2.0,4.0,81,0.00,,,0.09,Wunderground v.1.15,2013-04-29 02:59:00,
2013-04-28 23:02:00,50.2,44.6,30.15,ESE,119,2.0,11.0,81,0.00,,,0.09,Wunderground v.1.15,2013-04-29 03:02:00,
2013-04-28 23:03:00,50.3,44.7,30.15,ESE,116,1.0,11.0,81,0.00,,,0.09,Wunderground v.1.15,2013-04-29 03:03:00,
2013-04-28 23:05:00,50.3,45.0,30.14,SE,125,2.0,11.0,82,0.00,,,0.09,Wunderground v.1.15,2013-04-29 03:05:00,
2013-04-28 23:07:00,50.2,44.9,30.14,SE,136,2.0,11.0,82,0.00,,,0.09,Wunderground v.1.15,2013-04-29 03:07:00,
2013-04-28 23:09:00,50.2,44.9,30.14,East,98,2.0,11.0,82,0.00,,,0.09,Wunderground v.1.15,2013-04-29 03:09:00,
2013-04-28 23:10:00,50.2,44.9,30.14,SE,124,2.0,5.0,82,0.00,,,0.09,Wunderground v.1.15,2013-04-29 03:10:00,
2013-04-28 23:12:00,50.2,44.9,30.14,ESE,121,2.0,5.0,82,0.00,,,0.09,Wunderground v.1.15,2013-04-29 03:12:00,
2013-04-28 23:14:00,50.1,44.8,30.14,SSE,148,3.0,5.0,82,0.00,,,0.09,Wunderground v.1.15,2013-04-29 03:14:00,
2013-04-28 23:16:00,50.1,44.8,30.14,SE,129,3.0,5.0,82,0.00,,,0.09,Wunderground v.1.15,2013-04-29 03:16:00,
2013-04-28 23:19:00,50.1,44.8,30.14,SE,137,2.0,5.0,82,0.00,,,0.09,Wunderground v.1.15,2013-04-29 03:19:00,
2013-04-28 23:20:00,50.1,44.8,30.14,South,179,3.0,5.0,82,0.00,,,0.09,Wunderground v.1.15,2013-04-29 03:20:00,
2013-04-28 23:21:00,50.1,44.8,30.14,SE,129,2.0,5.0,82,0.00,,,0.09,Wunderground v.1.15,2013-04-29 03:21:00,
2013-04-28 23:24:00,50.1,44.8,30.14,East,86,2.0,5.0,82,0.00,,,0.09,Wunderground v.1.15,2013-04-29 03:24:00,
2013-04-28 23:25:00,50.0,44.7,30.14,ESE,118,2.0,5.0,82,0.00,,,0.09,Wunderground v.1.15,2013-04-29 03:25:00,
2013-04-28 23:26:00,50.1,44.8,30.14,SE,126,2.0,5.0,82,0.00,,,0.09,Wunderground v.1.15,2013-04-29 03:26:00,
2013-04-28 23:27:00,50.0,44.7,30.14,SE,127,2.0,5.0,82,0.00,,,0.09,Wunderground v.1.15,2013-04-29 03:27:00,
2013-04-28 23:29:00,50.1,45.1,30.14,SSE,150,3.0,7.0,83,0.00,,,0.09,Wunderground v.1.15,2013-04-29 03:29:00,
2013-04-28 23:31:00,50.1,45.1,30.14,SE,145,3.0,10.0,83,0.00,,,0.09,Wunderground v.1.15,2013-04-29 03:31:00,
2013-04-28 23:34:00,50.1,44.8,30.14,East,83,3.0,10.0,82,0.00,,,0.09,Wunderground v.1.15,2013-04-29 03:34:00,
2013-04-28 23:36:00,50.1,45.1,30.14,SE,136,3.0,10.0,83,0.00,,,0.09,Wunderground v.1.15,2013-04-29 03:36:00,
2013-04-28 23:37:00,50.1,45.1,30.14,SSE,150,3.0,10.0,83,0.00,,,0.09,Wunderground v.1.15,2013-04-29 03:37:00,
2013-04-28 23:39:00,50.1,45.1,30.14,ESE,113,3.0,10.0,83,0.00,,,0.09,Wunderground v.1.15,2013-04-29 03:39:00,
2013-04-28 23:41:00,50.1,45.1,30.14,East,101,3.0,8.0,83,0.00,,,0.09,Wunderground v.1.15,2013-04-29 03:41:00,
2013-04-28 23:43:00,50.1,45.1,30.14,SE,139,3.0,8.0,83,0.00,,,0.09,Wunderground v.1.15,2013-04-29 03:43:00,
2013-04-28 23:44:00,50.1,45.1,30.14,SE,130,3.0,8.0,83,0.00,,,0.09,Wunderground v.1.15,2013-04-29 03:44:00,
2013-04-28 23:47:00,50.1,45.5,30.14,ESE,117,2.0,8.0,84,0.00,,,0.09,Wunderground v.1.15,2013-04-29 03:47:00,
2013-04-28 23:49:00,50.2,45.6,30.14,SSE,149,3.0,8.0,84,0.00,,,0.09,Wunderground v.1.15,2013-04-29 03:49:00,
2013-04-28 23:50:00,50.1,45.5,30.14,ESE,121,2.0,6.0,84,0.00,,,0.09,Wunderground v.1.15,2013-04-29 03:50:00,
2013-04-28 23:51:00,50.1,45.5,30.14,South,169,2.0,6.0,84,0.00,,,0.09,Wunderground v.1.15,2013-04-29 03:51:00,
2013-04-28 23:54:00,50.2,45.6,30.14,SE,128,3.0,6.0,84,0.00,,,0.09,Wunderground v.1.15,2013-04-29 03:54:00,
2013-04-28 23:55:00,50.2,45.6,30.14,SSE,154,3.0,6.0,84,0.00,,,0.09,Wunderground v.1.15,2013-04-29 03:55:00,
2013-04-28 23:58:00,50.2,45.6,30.14,SE,144,3.0,6.0,84,0.00,,,0.09,Wunderground v.1.15,2013-04-29 03:58:00,